     2.00           OBSERVATION DATA    G (GPS)             RINEX VERSION / TYPE
teqc 1998Oct7 Victoria Andreatta 19981112 23:47:02UTC       PGM / RUN BY / DATE
Linux 2.0.30|PentPro|gcc|Linux|486/DX+                      COMMENT
                                                            MARKER NAME
                                                            OBSERVER / AGENCY
0 TURBOROGUE 96.03.24                                       REC # / TYPE / VERS
unknown unknown                                             ANT # / TYPE
 -1286086.8391 -4719306.8308  4081898.0447                  APPROX POSITION XYZ
        0.0000        0.0000        0.0000                  ANTENNA: DELTA H/E/N
     1     1                                                WAVELENGTH FACT L1/2
     5    L1    L2    C1    P2    P1                        # / TYPES OF OBSERV
SNR is mapped to RINEX snr flag value [1,4-9]               COMMENT
SNR: >316 >100 >31.6 >10 >3.2 >0 bad=0                      COMMENT
L1 & L2: 9 8 7 6 5 4 1                                      COMMENT
  1998    10     6     0     0    0.000000      GPS         TIME OF FIRST OBS
                                                            END OF HEADER
 98 10  6  0  0  0.0000000  0  8G19G25G31G22G14G18G16G 3
 -10742554.98149  -8370797.39844  23127263.7614   23127269.9064
   -997464.93948   -777234.47444  25127968.4174   25127975.3424
  -1097988.18949   -855573.25344  25045749.0004   25045758.4324
 -14055856.29249 -10952590.13645  21089400.6934   21089403.8294
   9018366.13849   7027292.63444  22435388.6244   22435393.3664
 -20435748.17749 -15923930.72744  21371552.3094   21371555.5194
 -20920887.61849 -16301965.39645  21280137.3794   21280141.6464
  -8624733.94649  -6720556.59744  23666787.7054   23666792.2184
 98 10  6  0  0 30.0000000  0  8G19G25G31G22G14G18G16G 3
 -10816827.52649  -8428671.96544  23113130.1124   23113136.7354
   -913026.60448   -711438.33544  25144037.0444   25144041.9864
  -1198522.42449                  25026617.7564
 -13995485.32749 -10905547.83145  21100888.9444   21100892.0104
   9116228.34049   7103548.82644  22454011.1844   22454016.4214
 -20508694.01749 -15980771.58244  21357671.0554   21357674.3774
 -20891158.05049 -16278799.52045  21285794.5864   21285799.0724
  -8702589.46549  -6781223.11144  23651971.8474   23651977.9904
 98 10  6  0  1  0.0000000  0  8G19G25G31G22G14G18G16G 3
 -10890936.33149  -8486418.96244  23099027.6644   23099033.1014
   -828581.07848   -645636.60144  25160106.8924   25160112.3504
  -1299148.61849                  25007468.7604
 -13934641.63849 -10858137.17445  21112467.0124   21112470.1724
   9214397.70649   7180044.36144  22472691.9964   22472697.3964
 -20581343.50949 -16037381.51744  21343846.5034   21343849.6884
 -20860869.37549 -16255197.97845  21291558.3034   21291562.7084
  -8780193.27749  -6841693.47744  23637204.2644   23637208.9234
 98 10  6  0  1 30.0000000  0  8G19G25G31G22G14G18G16G 3
 -10964888.00949  -8544043.52344  23084955.0564   23084960.9254
   -744134.73548   -579834.22644  25176176.2824   25176182.2684
  -1399870.55649                  24988301.6484
 -13873314.41249 -10810349.72945  21124137.2094   21124140.3874
   9312858.60449   7256767.07244  22491428.7244   22491434.2514
 -20653670.84449 -16093740.42044  21330082.9654   21330086.1284
 -20830010.24649 -16231151.92745  21297430.8404   21297434.9984
  -8857543.47149  -6901966.21744  23622484.9004   23622491.7294
 98 10  6  0  2  0.0000000  0  8G19G25G31G22G14G18G16G 3
 -11038703.69649  -8601562.14744  23070908.2274   23070912.5004
   -659712.53748   -514050.69644  25192241.2524   25192244.6314
  -1500719.19549                  24969110.8774
 -13811513.04749 -10762192.82745  21135897.5664   21135900.7514
   9411578.65749   7333691.71544  22510214.7374   22510220.3044
 -20725673.24149 -16149846.12444  21316381.2794   21316384.3544
 -20798576.99449 -16206658.50845  21303412.5654   21303416.5374
  -8934648.36849  -6962047.84744  23607812.2824   23607816.9994
 98 10  6  0  2 30.0000000  0  8G19G25G31G22G14G18G16G 3
 -11112381.26949  -8658973.14744  23056887.8824   23056892.8914
   -575301.85548   -448276.09744  25208304.4734   25208307.6704
  -1601701.63449  -1248075.70344  24949894.9424   24949904.6224
 -13749237.37549 -10713666.33445  21147748.1614   21147751.3164
   9510525.26649   7410792.90544  22529043.7834   22529048.9654
 -20797362.34049 -16205707.69444  21302739.2224   21302742.2464
 -20766556.33449 -16181707.37245  21309505.8394   21309509.7634
  -9011516.28949  -7021944.78844  23593184.6564   23593189.0734
 98 10  6  0  3  0.0000000  0  8G19G25G31G22G14G18G16G 3
 -11185937.14449  -8716289.32344  23042890.5714   23042895.5674
   -490899.93248   -382508.31744  25224365.9204   25224368.0854
  -1702812.93049  -1326863.47244  24930654.5154   24930665.6844
 -13686483.93349 -10664767.55145  21159689.8734   21159692.8214
   9609685.88749   7488060.85544  22547913.4884   22547918.8324
 -20868746.82249 -16261331.90044  21289155.3344   21289158.1864
 -20733961.12749 -16156308.53545  21315708.5494   21315712.2704
  -9088158.98349  -7081666.27344  23578600.1874   23578604.3724
 98 10  6  0  3 30.0000000  0  8G19G25G31G22G14G18G16G 3
 -11259370.95449  -8773510.39444  23028916.6594   23028920.8074
   -406498.94648   -316741.28644  25240427.0644   25240431.3824
  -1804019.67249  -1405725.64144  24911394.4334   24911404.6104
 -13623240.29649 -10615486.79745  21171724.7104   21171727.7764
   9709084.22049   7565514.04144  22566828.1624   22566833.6994
 -20939819.06449 -16316712.79944  21275630.4354   21275633.4434
 -20700776.08249 -16130450.08045  21322023.5854   21322027.3384
  -9164553.01749  -7141193.97344  23564062.9804   23564067.4784
 98 10  6  0  4  0.0000000  0  8G19G25G31G22G14G18G16G 3
 -11332679.58149  -8830633.93644  23014966.1514   23014970.8944
   -322095.49548                  25256488.5634
  -1905315.43849  -1484657.23644  24892117.6714   24892127.8484
 -13559524.72649 -10565838.30645  21183849.5414   21183852.5754
   9808717.47849   7643150.27044  22585787.5014   22585793.6184
 -21010612.41449 -16371876.37444  21262158.9044   21262161.7744
 -20667015.87749 -16104143.44445  21328447.8554   21328451.6624
  -9240713.14049  -7200539.40044  23549570.4174   23549576.3854
 98 10  6  0  4 30.0000000  0  8G19G25G31G22G14G18G16G 3
 -11405832.08249  -8887635.80644  23001045.5794   23001049.5054
   -237661.01648   -185179.16744  25272555.9474
  -2006664.84849  -1563630.63944  24872831.9284   24872843.3464
 -13495326.13349 -10515813.43345  21196066.3244   21196069.2914
   9908626.79949   7721001.61944  22604799.6734   22604805.8194
 -21081112.92649 -16426811.76244  21248743.2074   21248745.9494
 -20632675.85049 -16077384.99845  21334982.4994   21334986.5994
  -9316631.86449  -7259696.74344  23535123.6164   23535128.5614
 98 10  6  0  5  0.0000000  0  8G19G25G31G22G14G18G16G 3
 -11478838.13349  -8944523.56544  22987153.1804   22987157.9674
   -153215.56047   -119377.46744  25288625.0324   25288626.8374
  -2108057.08549  -1642637.37844  24853538.4114   24853547.0994
 -13430663.61549 -10465427.06445  21208371.0744   21208374.0894
  10008828.74249   7799080.99044  22623867.6564   22623872.7974
 -21151327.58849 -16481524.41044  21235381.6454   21235384.5164
 -20597759.13049 -16050177.17445  21341626.8874   21341631.4194
  -9392310.41649  -7318666.92144  23520722.3284   23520727.4984
 98 10  6  0  5 30.0000000  0  8G19G25G31G22G14G18G16G 3
 -11551712.03149  -9001308.35844  22973285.9064   22973291.0574
    -68788.39747                  25304690.6424
  -2209502.22549  -1721685.22244  24834233.7104   24834241.9024
 -13365574.83849 -10414708.54545  21220757.1484   21220760.1324
  10109291.08949   7877363.27044  22642985.2344   22642990.0374
 -21221284.06149 -16536035.87244  21222069.3104   21222072.3344
 -20562287.50949 -16022536.96245  21348376.6574   21348381.4424
  -9467765.16549  -7377462.68844  23506363.4514   23506368.6514
 98 10  6  0  6  0.0000000  0  8G19G25G31G22G14G18G16G 3
 -11624451.21049  -9057988.16844  22959443.4854   22959448.5624
     15611.98547                  25320750.7684
  -2311018.10048  -1800788.13144  24814915.3624   24814924.7944
 -13300072.49049 -10363667.76645  21233221.9334   21233225.0194
  10209994.61449   7955833.47644  22662148.5314   22662152.9774
 -21290978.05249 -16590342.80544  21208807.0734   21208810.0534
 -20526274.60249 -15994474.96445  21355229.8724   21355234.3204
  -9543002.59049  -7436089.11544  23492046.1434   23492051.1734
 98 10  6  0  6 30.0000000  0  8G19G25G31G22G14G18G16G 3
 -11697031.93649  -9114544.50044  22945631.8944   22945636.4124
    100005.46847     77937.80144  25336809.8374
  -2412587.92148  -1879933.02344  24795587.3234   24795595.0824
 -13234136.75149 -10312289.28045  21245769.0304   21245771.9784
  10310963.10749   8034510.15244  22681362.6364   22681367.2614
 -21360362.61349 -16644408.62544  21195603.2644   21195606.3984
 -20489702.82149 -15965977.47645  21362189.5534   21362193.4904
  -9617987.58049  -7494518.83844  23477777.3984   23477782.6714
 98 10  6  0  7  0.0000000  0  8G19G25G31G22G14G18G16G 3
 -11769459.66749  -9170981.62544  22931849.7264   22931854.3734
    184389.83546                  25352867.9374
  -2514208.41748  -1959117.37744  24776249.4404   24776255.9564
 -13167761.22049 -10260568.09545  21258399.7764   21258402.9004
  10412174.43949   8113376.05844  22700622.5434   22700627.1134
 -21429428.72349 -16698226.30144  21182460.4054   21182463.6474
 -20452568.54249 -15937041.66645  21369256.2674   21369259.7184
  -9692702.78149  -7552738.32644  23463559.5994   23463563.9414
 98 10  6  0  7 30.0000000  0  8G19G25G31G22G14G18G16G 3
 -11841763.72249  -9227322.38044  22918090.4154   22918095.5704
    268763.03346                  25368923.5154
  -2615915.63148                  24756893.8844
 -13100947.72749 -10208505.64545  21271113.8924   21271117.0844
  10513589.60949   8192400.80244  22719921.0844   22719926.2934
 -21498180.54749 -16751799.08145  21169377.4064   21169380.5894
 -20414901.13549 -15907690.43245  21376424.0044   21376427.6694
  -9767158.77249  -7610755.83844  23449390.4704   23449395.6414
 98 10  6  0  8  0.0000000  0  8G19G25G31G22G14G18G16G 3
 -11913966.90949  -9283584.52544  22904350.6414   22904356.1474
    353115.58846                  25384974.9434
  -2717735.49847                  24737516.8724
 -13033696.63849 -10156102.20644  21283911.2914   21283914.5414
  10615206.76049   8271582.93044  22739257.9944   22739263.7694
 -21566620.32049 -16805128.70745  21156353.7544   21156356.9254
 -20376710.76249 -15877931.69145  21383691.0454   21383694.8204
  -9841373.45549  -7668585.31444  23435267.1774   23435271.8364
 98 10  6  0  8 30.0000000  0  8G19G25G31G22G14G18G16G 3
 -11986063.54549  -9339763.63944  22890631.0994   22890636.2794
    437464.95246                  25401025.9564
  -2819656.05447                  24718121.6114
 -12965992.52149 -10103345.75944  21296794.8704   21296798.1894
  10717034.06549   8350928.80844  22758634.7464   22758640.6164
 -21634738.70049 -16858207.90345  21143391.1394   21143394.2964
 -20337981.57349 -15847753.09445  21391060.7594   21391065.0344
  -9915336.31649  -7726218.55944  23421192.5304   23421196.1594
 98 10  6  0  9  0.0000000  0  8G19G25G31G22G14G18G16G 3
 -12058063.17849  -9395867.17044  22876929.9674   22876934.9854
    521800.25846                  25417074.8224
  -2921670.06547                  24698709.1524
 -12897836.47449 -10050237.15844  21309764.2784   21309767.7364
  10819056.39249   8430426.66044  22778048.6614   22778055.5544
 -21702539.74449 -16911039.82845  21130488.8844   21130491.9864
 -20298709.27649 -15817151.29445  21398534.0484   21398538.3294
  -9989044.13749  -7783653.08044  23407166.9064   23407172.6304
 98 10  6  0  9 30.0000000  0  8G19G25G31G22G14G18G16G 3
 -12129960.87749  -9451891.25944  22863248.1864   22863253.3804
    606107.13145                  25433118.7354
  -3023778.09747                  24679278.4634
 -12829244.96949  -9996789.23644  21322816.8574   21322820.0584
  10921281.16149   8510082.25744  22797501.5824   22797508.2874
 -21770031.14749 -16963630.48345  21117645.6984   21117648.6464
 -20258898.32149 -15786129.76545  21406110.0324   21406114.0454
 -10062505.61749  -7840895.65244  23393187.7624   23393192.7544
 98 10  6  0 10  0.0000000  0  8G19G25G31G22G14G18G16G 3
 -12201704.66949  -9507795.42144  22849595.7264   22849600.2574
    690400.08845                  25449158.9064
  -3125926.66947  -2435779.18444  24659839.7854   24659850.7074
 -12760206.25349  -9942992.83244  21335954.4884   21335957.8564
  11023754.68649   8589931.69144  22817001.8414   22817007.2894
 -21837185.94849 -17015958.85545  21104866.8024   21104869.5584
 -20218519.43249 -15754665.68645  21413794.4034   21413797.8764
 -10135686.60149  -7897919.64444  23379261.3954   23379265.8344
 98 10  6  0 10 30.0000000  0  7G19G31G22G14G18G16G 3
 -12273281.42349  -9563569.42344  22835975.0324   22835979.1584
  -3228090.36648                  24640399.4214
 -12690716.78849  -9888845.19744  21349177.6914   21349181.0744
  11126473.25449   8669972.07344  22836548.6864   22836554.0384
 -21903987.95549 -17068012.32445  21092154.7644   21092157.6414
 -20177576.84449 -15722762.36445  21421585.5904   21421588.9254
 -10208560.20949  -7954704.15244  23365393.3324   23365397.8904
 98 10  6  0 11  0.0000000  0  7G19G31G22G14G18G16G 3
 -12344715.95249  -9619232.59344  22822381.5694   22822386.2514
  -3330280.86748  -2595015.78844  24620954.1664   24620964.3434
 -12620810.04649  -9834372.41244  21362480.5074   21362483.6444
  11229420.61249   8750190.72144  22856139.1614   22856144.8564
 -21970469.38849 -17119815.99445  21079503.5724   21079506.4814
 -20136105.69049 -15690447.17445  21429477.1154   21429480.7224
 -10281141.40549  -8011260.79744  23351581.6814   23351586.7374
 98 10  6  0 11 30.0000000  0  7G19G31G22G14G18G16G 3
 -12416019.86349  -9674793.98244  22808813.0364   22808817.4534
  -3432508.82749  -2674673.64244  24601501.2484   24601507.2934
 -12550500.06049  -9779585.40644  21375860.3004   21375863.6234
  11332595.40149   8830586.58544  22875772.7204   22875778.9864
 -22036638.33249 -17171376.17045  21066911.9304   21066914.7694
 -20094117.93049 -15657729.43845  21437466.8904   21437470.7614
 -10353443.24549  -8067599.76444  23337823.6454   23337829.4774
 98 10  6  0 12  0.0000000  0  7G19G31G22G14G18G16G 3
 -12487184.75949  -9730247.04944  22795270.3704   22795274.9884
  -3534755.73049  -2754346.29144  24582043.7784   24582051.4084
 -12479762.89849  -9724465.53244  21389321.2834   21389324.4154
  11436005.25349   8911165.62044  22895450.7544   22895457.3344
 -22102459.11549 -17222665.05145  21054386.6444   21054389.5334
 -20051590.52849 -15624591.20445  21445559.2024   21445563.7124
 -10425444.52049  -8123704.51244  23324122.1104   23324126.4194
 98 10  6  0 12 30.0000000  0  7G19G31G22G14G18G16G 3
 -12558240.35449  -9785614.93944  22781748.5684   22781752.8654
  -3637046.47548  -2834053.08344  24562577.5604   24562586.4954
 -12408622.29049  -9669031.28844  21402858.7844   21402861.8494
  11539610.81849   8991897.14044  22915166.4634   22915171.8214
 -22167946.17549 -17273693.89145  21041924.9724   21041927.6064
 -20008534.18349 -15591040.81045  21453752.5454   21453757.1834
 -10497173.06549  -8179596.74744  23310472.4184   23310476.3014
 98 10  6  0 13  0.0000000  0  7G19G31G22G14G18G16G 3
 -12629174.64949  -9840888.30344  22768250.3804   22768255.3234
  -3739362.31648  -2913779.42544  24543106.2184   24543115.8984
 -12337075.00949  -9613280.16144  21416473.6374   21416476.7694
  11643425.16849   9072791.36244  22934921.4214   22934927.4944
 -22233080.36349 -17324447.76545  21029530.4044   21029533.2454
 -19964912.39449 -15557049.81145  21462053.7784   21462058.0144
 -10568624.24049  -8235272.86044  23296875.5014   23296879.0534
 98 10  6  0 13 30.0000000  0  7G19G31G22G14G18G16G 3
 -12699970.27849  -9896053.62544  22754778.1084   22754783.0084
  -3841698.66048  -2993521.75644  24523631.4114   24523642.8284
 -12265108.61649  -9557202.45744  21430168.6694   21430171.5444
  11747449.46349   9153849.17144  22954716.4484   22954723.5954
 -22297829.93449 -17374901.94045  21017208.8674   21017211.4324
 -19920695.24549 -15522594.89145  21470468.1774   21470471.9604
 -10639785.61949  -8290723.16744  23283333.7774   23283337.7834
 98 10  6  0 14  0.0000000  0  7G19G31G22G14G18G16G 3
 -12770628.00049  -9951111.48544  22741332.0184   22741336.7234
  -3944064.29647  -3073286.91144  24504151.9484   24504160.8844
 -12192729.16249  -9500802.89244  21443942.1774   21443945.0004
  11851671.70749   9235061.23044  22974549.3074   22974556.2254
 -22362203.78349 -17425063.34145  21004958.9074   21004961.7074
 -19875900.26649 -15487689.71745  21478992.3734   21478996.1974
 -10710656.94349  -8345947.47744  23269847.1194   23269851.7724
 98 10  6  0 14 30.0000000  0  7G19G31G22G14G18G16G 3
 -12841160.57249 -10006071.84144  22727910.0534   22727915.5984
  -4046474.56847  -3153086.81444  24484663.9834   24484674.1604
 -12119955.03049  -9444095.79244  21457790.5744   21457793.6624
  11956070.90449   9316411.16944  22994415.8034   22994422.5474
 -22426229.42949 -17474953.42145  20992775.3894   20992777.9804
 -19830557.35349 -15452357.58544  21487620.6084   21487624.5434
 -10781240.06949  -8400947.17244  23256415.9314   23256420.8174
 98 10  6  0 15  0.0000000  0  7G19G31G22G14G18G16G 3
 -12911550.14549 -10060920.75844  22714515.5454   22714520.5374
  -4148916.96847  -3232911.69544  24465169.4704   24465177.6614
 -12046754.80849  -9387056.67444  21471719.9904   21471723.0384
  12060672.54649   9397918.85344  23014320.9534   23014328.0224
 -22489894.95749 -17524562.88845  20980660.0234   20980662.9044
 -19784658.11549 -15416591.95944  21496354.5874   21496358.9194
 -10851491.41949  -8455688.38644  23243047.6074   23243051.5954
 98 10  6  0 15 30.0000000  0  7G19G31G22G14G18G16G 3
 -12981769.82449 -10115637.29744  22701152.6434   22701158.6174
  -4251380.51647  -3312753.02644  24445671.5604   24445679.7514
 -11973101.25149  -9329664.31344  21485736.0824   21485739.0624
  12165485.99949   9479591.58744  23034266.4634   23034273.2944
 -22553199.02449 -17573890.69945  20968613.3744   20968616.5104
 -19738218.19649 -15380405.03144  21505191.6524   21505196.1024
 -10921381.60049  -8510148.18444  23229747.5694   23229751.5944
 98 10  6  0 16  0.0000000  0  7G19G31G22G14G18G16G 3
 -13051820.44949 -10170222.10244  22687822.0894   22687827.6754
  -4353850.31548  -3392599.24644  24426173.0244   24426181.4644
 -11898997.26849  -9271920.97544  21499837.7194   21499840.6384
  12270502.90749   9561422.86844  23054250.4484   23054257.5734
 -22616156.04549 -17622948.08545  20956633.1164   20956636.2944
 -19691267.09849 -15343819.77844  21514126.3814   21514130.5664
 -10990910.50149  -8564326.46844  23216516.2024   23216520.8864
 98 10  6  0 16 30.0000000  0  7G19G31G22G14G18G16G 3
 -13121709.80049 -10224681.24044  22674522.6174   22674528.1574
  -4456321.83248  -3472446.83244  24406673.5374   24406680.1414
 -11824458.68549  -9213838.99044  21514021.7324   21514024.5174
  12375701.45549   9643395.69944  23074269.2234   23074276.5934
 -22678777.34349 -17671743.87045  20944716.6584   20944719.7144
 -19643806.82549 -15306837.76544  21523158.1634   21523161.8344
 -11060085.65049  -8618229.08744  23203352.7264   23203357.7074
 98 10  6  0 17  0.0000000  0  7G19G31G22G14G18G16G 3
 -13191427.89249 -10279006.94944  22661255.8694   22661261.1904
  -4558789.48748  -3552291.43844  24387174.6804   24387177.9674
 -11749488.61349  -9155420.77844  21528288.0624   21528291.1304
  12481084.04149   9725511.93044  23094322.9234   23094330.2164
 -22741051.33849 -17720269.02945  20932866.5394   20932869.4884
 -19595830.57049 -15269453.69544  21532287.9524   21532291.5994
 -11128916.61649  -8671863.50744  23190254.5794   23190258.1594
 98 10  6  0 17 30.0000000  0  7G19G31G22G14G18G16G 3
 -13260934.19749 -10333167.63144  22648029.3954   22648033.6934
  -4661204.78048  -3632095.26644  24367685.9464   24367688.9704
 -11674062.45349  -9096647.17144  21542641.2754   21542644.1424
  12586680.42849   9807794.76544  23114417.3314   23114424.5954
 -22802924.43949 -17768481.80245  20921092.4674   20921095.4244
 -19547297.95049 -15231636.09644  21541523.2774   21541526.8854
 -11197392.51149  -8725221.24944  23177224.1714   23177228.8344
 98 10  6  0 18  0.0000000  0  7G19G31G22G14G18G16G 3
 -13330293.49849 -10387213.76444  22634830.9514   22634835.2734
  -4763624.12748  -3711902.19344  24348196.3094   24348199.5304
 -11598252.18649  -9037574.26144  21557067.6474   21557070.4224
  12692437.75049   9890202.99044  23134542.5134   23134549.5554
 -22864436.13649 -17816412.96645  20909387.0064   20909389.9514
 -19498256.35849 -15193421.90244  21550855.3274   21550859.4154
 -11265584.77149  -8778357.96244  23164247.4734   23164251.9074
 98 10  6  0 18 30.0000000  0  7G19G31G22G14G18G16G 3
 -13399622.27449 -10441236.12044  22621638.5584   22621641.8314
  -4866171.52148  -3791809.02844  24328681.3394   24328685.3214
 -11522170.09149  -8978289.53344  21571545.4174   21571548.2494
  12798243.23449   9972648.75944  23154676.7814   23154683.7454
 -22925685.73049 -17864139.89545  20897731.4444   20897734.4844
 -19448805.64449 -15154888.91344  21560265.5154   21560269.8074
 -11333605.41049  -8831360.98144  23151303.4474   23151308.2734
 98 10  6  0 19  0.0000000  0  7G19G31G22G14G18G16G 3
 -13468830.55849 -10495164.59044  22608468.7754   22608471.6714
  -4968767.51348  -3871753.72444  24309156.7394   24309159.9034
 -11445718.73749  -8918717.06844  21586093.2174   21586096.3664
  12904205.27849  10055216.50744  23174840.9214   23174847.4804
 -22986567.85849 -17911580.48545  20886145.9494   20886149.0104
 -19398861.91649 -15115971.76344  21569769.7384   21569773.9634
 -11401364.25849  -8884159.94744  23138409.1244   23138413.6964
 98 10  6  0 19 30.0000000  0  7G19G31G22G14G18G16G 3
 -13537928.01249 -10549006.69044  22595319.6954   22595322.8744
  -5071405.52347  -3951731.17044  24289624.0744   24289631.7274
 -11368903.08749  -8858860.73444  21600711.0064   21600714.4494
  13010323.13949  10137905.68044  23195034.7984   23195041.5994
 -23047086.28849 -17958737.67645  20874629.7014   20874632.7364
 -19348434.11349 -15076677.40644  21579366.0874   21579369.9004
 -11468850.48449  -8936746.50344  23125566.6384   23125570.7374
 98 10  6  0 20  0.0000000  0  7G19G31G22G14G18G16G 3
 -13606915.36749 -10602762.99844  22582191.7964   22582195.7654
  -5174070.91247                  24270087.2294
 -11291714.79449  -8798714.02244  21615399.4004   21615402.8504
  13116611.12849  10220727.41344  23215260.3634   23215268.0024
 -23107246.49049 -18005615.72945  20863181.4584   20863184.5794
 -19297515.32149 -15037000.46244  21589055.5684   21589059.2724
 -11536024.12849  -8989089.51344  23112783.3014   23112787.1454
 98 10  6  0 20 30.0000000  0  7G19G31G22G14G18G16G 3
 -13675763.04149 -10656410.47244  22569090.6144   22569093.8264
  -5276723.48247  -4111718.79844  24250553.5474   24250560.9394
 -11214115.88749  -8738247.35544  21630166.0334   21630169.3644
  13223100.85749  10303706.34344  23235524.9144   23235531.9744
 -23167011.98349 -18052186.21745  20851808.3704   20851811.5024
 -19246068.33749 -14996911.93844  21598845.3804   21598849.3924
 -11602827.40949  -9041143.91544  23100071.3864   23100076.4134
 98 10  6  0 21  0.0000000  0  7G19G31G22G14G18G16G 3
 -13744476.35249 -10709953.23544  22556014.7414   22556018.1814
  -5379346.68847  -4191684.74344  24231024.8034   24231032.5584
 -11136116.25049  -8677468.43044  21645008.8894   21645012.3074
  13329788.50849  10386839.50044  23255826.7054   23255833.9694
 -23226385.17149 -18098451.01145  20840510.0254   20840513.0964
 -19194090.00649 -14956409.38444  21608736.3154   21608740.8114
 -11669246.21649  -9092898.74944  23087432.2384   23087436.6964
 98 10  6  0 21 30.0000000  0  7G19G31G22G14G18G16G 3
 -13813095.73449 -10763422.80944  22542956.6204   22542960.5534
  -5481967.60247  -4271648.87044  24211496.3714   24211502.6604
 -11057770.18749  -8616419.56444  21659917.5764   21659921.1284
  13436609.20549  10470076.31844  23276153.9664   23276162.4054
 -23285401.63549 -18144437.83845  20829279.6534   20829282.6624
 -19141616.01249 -14915520.59844  21618721.7684   21618726.4284
 -11735314.40549  -9144380.35844  23074860.1694   23074864.5144
 98 10  6  0 22  0.0000000  0  7G19G31G22G14G18G16G 3
 -13881552.37949 -10816765.56944  22529929.4684   22529933.4924
  -5584528.45447  -4351566.18944  24191979.6084   24191986.8254
 -10979029.93149  -8555063.53344  21674901.4484   21674904.9804
  13543612.10249  10553455.11944  23296516.1404   23296523.4104
 -23343999.75149 -18190098.68245  20818128.7894   20818131.6414
 -19088587.60949 -14874199.79944  21628812.7084   21628817.2114
 -11800976.22249  -9195545.31844  23062365.3674   23062370.2074
 98 10  6  0 22 30.0000000  0  7G19G31G22G14G18G16G 3
 -13949835.85249 -10869973.39644  22516935.3674   22516940.0254
  -5687038.12647  -4431443.60144  24172473.0164   24172478.0484
 -10899906.84849  -8493409.20044  21689958.0754   21689962.0014
  13650767.09649  10636952.44644  23316907.3514   23316914.3474
 -23402179.74749 -18235433.71845  20807057.4074   20807060.3544
 -19035023.54049 -14832461.59544  21639006.0854   21639010.1804
 -11866249.82849  -9246407.77644  23049944.3234   23049948.1984
 98 10  6  0 23  0.0000000  0  7G19G31G22G14G18G16G 3
 -14017915.65949 -10923022.50944  22503980.0314   22503984.7664
  -5789472.05947  -4511262.01944  24152979.8994   24152985.3434
 -10820396.34749  -8431452.98344  21705088.6114   21705092.0184
  13758079.32949  10720572.28244  23337328.4584   23337335.5744
 -23459932.44749 -18280435.79745  20796067.5184   20796070.2014
 -18980917.24249 -14790300.86844  21649301.9684   21649306.1234
 -11931128.57649  -9296962.55844  23037597.9074   23037601.6194
 98 10  6  0 23 30.0000000  0  7G19G31G22G14G18G16G 3
 -14085750.14049 -10975880.46844  22491071.6284   22491076.4794
  -5891796.79447  -4590995.33844  24133507.4144   24133513.6734
 -10740464.80549  -8369168.68344  21720299.0534   21720302.4194
  13865576.36049  10804336.11944  23357784.0774   23357790.5524
 -23517239.07249 -18325090.28545  20785162.4154   20785165.2574
 -18926256.46849 -14747708.08444  21659703.3994   21659707.9354
 -11995585.75749  -9347188.85244  23025331.6264   23025335.5624
 98 10  6  0 24  0.0000000  0  7G19G31G22G14G18G16G 3
 -14153428.16349 -11028616.51044  22478193.0004   22478197.5444
  -5994090.68148  -4670704.59344  24114041.5344   24114051.9594
 -10660197.38249  -8306622.65444  21735573.4334   21735576.6424
  13973179.50849  10888182.64044  23378260.3114   23378266.4344
 -23574195.27849 -18369471.71545  20774323.9884   20774326.8014
 -18871138.82349 -14704759.30044  21670191.9344   21670196.5964
 -12059709.34549  -9397155.20344  23013129.0564   23013133.2284
 98 10  6  0 24 30.0000000  0  7G19G31G22G14G18G16G 3
 -14220965.91949 -11081243.24644  22465340.7314   22465345.5634
  -6096350.54248  -4750387.42244  24094581.5164   24094585.7224
 -10579589.20349  -8243811.09244  21750912.7754   21750915.7984
  14080881.47649  10972106.14244  23398755.4714   23398761.8074
 -23630797.33549 -18413577.18445  20763553.2654   20763555.7404
 -18815570.26649 -14661459.15744  21680766.3074   21680771.0434
 -12123497.60649  -9446860.25444  23000990.6334   23000994.7164
 98 10  6  0 25  0.0000000  0  7G19G31G22G14G18G16G 3
 -14288401.59849 -11133790.44644  22452508.1864   22452512.4274
  -6198607.86948  -4830068.23544  24075122.5294   24075127.5674
 -10498667.61149  -8180755.30944  21766311.8874   21766314.8064
  14188675.86249  11056101.66844  23419268.0634   23419275.4474
 -23687063.74249 -18457421.10845  20752845.8944   20752848.6484
 -18759575.89149 -14617827.20544  21691421.7884   21691426.5144
 -12186978.86549  -9496326.08344  22988910.7524   22988915.2854
 98 10  6  0 25 30.0000000  0  7G19G31G22G14G18G16G 3
 -14355735.89049 -11186258.63944  22439694.9984   22439699.1574
  -6300852.07948  -4909738.93244  24055666.8474   24055672.9854
 -10417420.69849  -8117446.02644  21781772.7814   21781775.8774
  14296581.34149  11140183.75744  23439801.6804   23439808.5734
 -23742976.38449 -18500989.36945  20742205.7924   20742208.7484
 -18703132.34549 -14573845.25144  21702162.6354   21702167.4144
 -12250140.62249  -9545542.94844  22976891.2714   22976895.6264
 98 10  6  0 26  0.0000000  0  7G19G31G22G14G18G16G 3
 -14423021.99149 -11238689.28444  22426890.8934   22426894.9334
  -6403137.26348  -4989441.48544  24036202.4224   24036208.3024
 -10335906.54149  -8053928.50044  21797284.2884   21797286.8234
  14404550.66649  11224315.59344  23460347.8104   23460354.9264
 -23798569.36649 -18544308.54545  20731626.7504   20731629.8234
 -18646277.01249 -14529542.42744  21712982.0584   21712986.5064
 -12313023.47549  -9594542.48844  22964925.1674   22964929.4934
 98 10  6  0 26 30.0000000  0  7G19G31G22G14G18G16G 3
 -14490261.35049 -11291083.50744  22414095.6704   22414099.0794
  -6505472.07148  -5069182.70344  24016728.2644   24016735.5564
 -10254125.03149  -7990202.64344  21812846.5474   21812849.6224
  14512579.48549  11308493.79244  23480905.2824   23480910.3254
 -23853837.73749 -18587374.77445  20721109.6894   20721112.6254
 -18588999.69349 -14484910.78044  21723881.7754   21723885.9374
 -12375615.51549  -9643315.43044  22953014.1784   22953018.5644
 98 10  6  0 27  0.0000000  0  7G19G31G22G14G18G16G 3
 -14557338.37549 -11343351.23844  22401331.4884   22401334.9404
  -6607746.39248  -5148876.78844  23997265.8794   23997273.5524
 -10171977.88749  -7926191.87844  21828478.4754   21828481.6504
  14620778.50849  11392804.63744  23501494.9454   23501501.8214
 -23908680.12749 -18630109.06945  20710673.4834   20710676.4784
 -18531182.68249 -14439858.60044  21734884.1264   21734888.3084
 -12437803.37049  -9691773.41744  22941180.2214   22941184.7164
 98 10  6  0 27 30.0000000  0  7G19G31G22G14G18G16G 3
 -14624277.62549 -11395511.61444  22388593.0074   22388596.5734
  -6709974.70448  -5228534.96144  23977812.5824   23977820.7734
 -10089511.55749  -7861932.39344  21844171.1984   21844174.3304
  14729090.40249  11477203.41444  23522105.9004   23522112.0314
 -23963121.43449 -18672530.82745  20700313.5854   20700316.6154
 -18472862.33749 -14394414.21144  21745982.1204   21745986.2704
 -12499607.96749  -9739932.75944  22929418.8854   22929422.2544
 98 10  6  0 28  0.0000000  0  7G19G31G22G14G18G16G 3
 -14691046.83949 -11447539.50044  22375887.1914   22375891.1414
  -6812143.32148  -5308146.66144  23958370.4744   23958378.2394
 -10006703.58049  -7797406.68944  21859928.9594   21859932.1564
  14837514.90549  11561689.94044  23542738.4264   23542745.0624
 -24017131.05449 -18714616.20245  20690035.8024   20690038.8694
 -18414044.59749 -14348582.24744  21757174.7504   21757179.0224
 -12561005.60849  -9787774.98644  22917734.8524   22917739.1494
 98 10  6  0 28 30.0000000  0  7G19G31G22G14G18G16G 3
 -14757616.72449 -11499412.06844  22363219.2754   22363223.5884
  -6914226.66649  -5387691.91444  23938944.7354   23938952.9264
  -9923526.45349  -7732593.33744  21875756.9084   21875760.1944
  14946062.92849  11646272.72544  23563394.6314   23563401.6164
 -24070672.90749 -18756337.08045  20679847.0774   20679850.1314
 -18354706.99449 -14302345.19244  21768466.0544   21768470.5544
 -12621975.13249  -9835283.62244  22906132.5684   22906136.2594
 98 10  6  0 29  0.0000000  0  7G19G31G22G14G18G16G 3
 -14824000.63749 -11551139.72244  22350586.4354   22350590.6584
  -7016229.54249  -5467174.47244  23919533.5914   23919543.7684
  -9840000.65949  -7667508.30144  21891651.3664   21891654.7014
  15054718.18449  11730939.05444  23584071.0674   23584077.9864
 -24123752.38249 -18797697.66045  20669746.4824   20669749.4514
 -18294874.43949 -14255722.45344  21779851.7884   21779856.6034
 -12682531.32349  -9882470.17944  22894609.0184   22894612.2334
 98 10  6  0 29 30.0000000  0  8G19G27G31G22G14G18G16G 3
 -14890195.39949 -11602719.99244  22337990.0894   22337994.5344
        -0.45256         0.16454  25561684.3044   25561688.0364
  -7118139.86249  -5546584.91644  23900140.5754   23900147.4474
  -9756104.18549  -7602134.41844  21907616.3514   21907620.0414
  15163488.29049  11815694.90044  23604769.3634   23604777.1344
 -24176350.74249 -18838683.34645  20659737.2564   20659740.3154
 -18234546.79149 -14208713.92944  21791331.7654   21791335.9294
 -12742657.50549  -9929321.65144  22883167.6924   22883171.1044
 98 10  6  0 30  0.0000000  0  8G19G27G31G22G14G18G16G 3
 -14956224.65149 -11654171.29244  22325425.0614   22325429.4024
    -82585.63746                  25545967.7974
  -7219966.57449  -5625930.23344  23880764.0974   23880768.7244
  -9671829.63349  -7536465.92844  21923653.3754   21923656.7324
  15272370.23149  11900537.87944  23625489.0684   23625497.2594
 -24228492.28749 -18879313.07645  20649814.9674   20649818.0364
 -18173720.31249 -14161316.70044  21802907.0194   21802911.1244
 -12802360.87649  -9975843.66744  22871807.1714   22871810.4264
 98 10  6  0 30 30.0000000  0  8G19G27G31G22G14G18G16G 3
 -15022100.10249 -11705502.74744  22312889.4084   22312893.4764
   -165141.36746                  25530256.5634
  -7321684.53749  -5705190.82244  23861408.0784   23861412.6934
  -9587179.74549  -7470504.97344  21939761.7084   21939765.2534
  15381386.05449  11985485.18944  23646234.1264   23646240.9204
 -24280186.94649 -18919594.58845  20639977.7874   20639980.7274
 -18112380.30649 -14113519.31644  21814579.7834   21814583.4124
 -12861633.30149 -10022029.87444  22860528.3524   22860531.4884
 98 10  6  0 31  0.0000000  0  8G19G27G31G22G14G18G16G 3
 -15087856.97249 -11756741.79644  22300376.2274   22300380.4844
   -247684.80845                  25514547.4224
  -7423312.88549  -5784381.56944  23842068.7274   23842073.3704
  -9502186.12549  -7404276.17744  21955935.6964   21955939.0794
  15490512.60349  12070518.78244  23667000.6424   23667006.4124
 -24331489.34049 -18959570.44245  20630215.4154   20630218.1184
 -18050567.17149 -14065353.26544  21826342.2324   21826346.3354
 -12920504.46849 -10067903.43544  22849325.3494   22849328.5724
 98 10  6  0 31 30.0000000  0  8G19G27G31G22G14G18G16G 3
 -15153449.67349 -11807852.93244  22287894.2554   22287898.4964
   -330187.54945                  25498846.3794
  -7524822.90549  -5863480.13144  23822751.1154   23822756.5614
  -9416813.92749  -7337752.38344  21972181.4804   21972184.8404
  15599770.36449  12155654.60444  23687792.0064   23687798.2224
 -24382372.87349 -18999219.91045  20620532.5494   20620535.1084
 -17988263.31449 -14016804.83144  21838198.0604   21838202.7034
 -12978947.18349 -10113443.12644  22838203.0634   22838206.4744
 98 10  6  0 32  0.0000000  0  8G19G27G31G22G14G18G16G 3
 -15218874.03449 -11858832.88444  22275444.4814   22275448.5594
   -412670.21845                  25483150.3154
  -7626219.34849  -5942490.20744  23803455.3224   23803461.6774
  -9331080.25649  -7270946.92344  21988495.9124   21988499.3134
  15709156.99049  12240890.84444  23708607.8474   23708614.5044
 -24432846.17049 -19038549.71845  20610927.7454   20610930.1194
 -17925489.60849 -13967890.27644  21850143.4584   21850148.1294
 -13036980.96849 -10158664.17844  22827159.1774   22827162.5244
 98 10  6  0 32 30.0000000  0  7G19G31G22G14G18G16G 3
 -15284119.50149 -11909673.43844  22263028.7724   22263032.3094
  -7727506.81749  -6021415.31444  23784180.6614   23784187.3854
  -9245005.77749  -7203875.90344  22004875.4144   22004879.1064
  15818672.32549  12326227.38644  23729448.0674   23729453.6474
 -24482895.48249 -19077549.14745  20601403.9314   20601406.1454
 -17862265.05749 -13918624.41044  21862174.8164   21862179.3724
 -13094609.40549 -10203569.37844  22816192.8664   22816196.5004
 98 10  6  0 33  0.0000000  0  7G19G31G22G14G18G16G 3
 -15349198.68049 -11960384.42744  22250644.5814   22250648.0154
  -7828725.96849  -6100287.22244  23764918.9204   23764928.8484
  -9158620.72249  -7136562.87344  22021314.0974   22021317.2984
  15928274.48649  12411631.58744  23750304.8754   23750311.4414
 -24532532.91349 -19116227.62945  20591958.1864   20591960.5224
 -17798619.23549 -13869030.27244  21874286.6054   21874290.7654
 -13151853.59049 -10248175.16744  22805300.0554   22805303.9684
 98 10  6  0 33 30.0000000  0  7G19G31G22G14G18G16G 3
 -15414124.33249 -12010975.78544  22238289.5184   22238293.0094
  -7929890.38749  -6179116.49744  23745667.6744   23745674.2644
  -9071942.83049  -7069021.66044  22037808.2854   22037811.4604
  16037950.89449  12497093.64644  23771175.6574   23771183.5584
 -24581744.84849 -19154574.55745  20582593.2064   20582595.6934
 -17734559.28049 -13819113.44244  21886476.5384   21886480.8284
 -13208726.46149 -10292491.61044  22794477.8294   22794481.9944
 98 10  6  0 34  0.0000000  0  7G19G31G22G14G18G16G 3
 -15478944.37849 -12061484.84644  22225954.4694   22225958.2604
  -8031019.92349  -6257918.54944  23726423.0964   23726430.0654
  -8985019.55749  -7001289.24244  22054349.3514   22054352.6764
  16147671.24949  12582589.94444  23792054.7214   23792061.0854
 -24630564.32149 -19192615.67145  20573303.2214   20573305.4934
 -17670099.61349 -13768885.14644  21898742.4804   21898747.1194
 -13265251.99549 -10336537.40344  22783721.0634   22783725.3664
 98 10  6  0 34 30.0000000  0  7G19G31G22G14G18G16G 3
 -15543661.49149 -12111913.71044  22213639.5214   22213642.8014
  -8132105.65149  -6336686.47044  23707187.2484   23707193.6994
  -8897853.51949  -6933367.66544  22070936.3664   22070939.6914
  16257422.67149  12668110.45844  23812939.8484   23812947.4904
 -24678987.06149 -19230347.64445  20564088.7884   20564091.0114
 -17605225.96049 -13718334.25944  21911087.5544   21911092.3384
 -13321414.70049 -10380300.47744  22773033.4754   22773037.0164
 98 10  6  0 35  0.0000000  0  8G19G27G31G22G14G18G16G 3
 -15608269.03349 -12162257.19944  22201345.0534   22201348.2644
        -0.32455                  25388867.2474
  -8233136.09949  -6415411.29444  23687961.8004   23687966.9454
  -8810427.94949  -6865243.85344  22087573.1304   22087576.2394
  16367211.18149  12753659.87744  23833831.7804   23833840.2194
 -24727010.79249 -19267768.69945  20554949.9344   20554952.1634
 -17539936.88149 -13667459.66144  21923511.5164   21923516.2824
 -13377206.59949 -10423774.61244  22762416.5434   22762419.9494
 98 10  6  0 35 30.0000000  0  8G19G27G31G22G14G18G16G 3
 -15672772.82149 -12212519.83744  22189070.2124   22189073.7514
    -82744.10646                  25373122.8404
  -8334090.72649  -6494077.02044  23668751.3824   23668756.6154
  -8722740.51649  -6796915.98844  22104259.5164   22104262.7284
  16477040.87049  12839241.37844  23854731.6164   23854740.3034
 -24774637.88349 -19304880.68545  20545886.6304   20545889.3964
 -17474236.88949 -13616264.86444  21936014.1204   21936019.2174
 -13432624.06049 -10466956.97344  22751870.9424   22751874.5774
 98 10  6  0 36  0.0000000  0  8G19G27G31G22G14G18G16G 3
 -15737163.22149 -12262694.13144  22176817.1914   22176820.7904
   -165493.49146                  25357375.3394
  -8434946.85649  -6572666.00644  23649559.0014   23649563.1794
  -8634776.64549  -6728372.72444  22120998.4364   22121001.6184
  16586916.77549  12924858.89144  23875640.1024   23875647.4894
 -24821858.66749 -19341676.06945  20536900.8414   20536903.6754
 -17408120.49249 -13564745.59744  21948595.8274   21948600.3864
 -13487631.28449 -10509819.66644  22741403.5154   22741407.2514
 98 10  6  0 36 30.0000000  0  8G19G27G31G22G14G18G16G 3
 -15801430.71349 -12312772.65244  22164587.5504   22164591.1764
   -248235.63746                  25341629.6444
  -8535694.66149  -6651170.56644  23630386.9784   23630392.2204
  -8546523.98849  -6659604.42644  22137792.2914   22137795.4174
  16696845.37449  13010517.45444  23896559.0614   23896566.6044
 -24868650.65249 -19378137.31845  20527996.5114   20527999.4754
 -17341599.92249 -13512911.38744  21961254.5584   21961258.6204
 -13542219.15849 -10552355.59144  22731015.8394   22731019.7864
 98 10  6  0 37  0.0000000  0  8G19G27G31G22G14G18G16G 3
 -15865552.89449 -12362737.94144  22152385.3214   22152388.7444
   -330944.16646                  25325890.0684
  -8636305.16249  -6729568.14444  23611241.0594   23611246.1244
  -8457973.45949  -6590604.01944  22154643.0614   22154645.9154
  16806846.31549  13096232.37144  23917491.4854   23917500.1734
 -24914990.83649 -19414246.51545  20519177.9694   20519180.9204
 -17274662.15949 -13460752.08744  21973992.4504   21973996.2194
 -13596368.77949 -10594550.01144  22720711.7594   22720715.5174
 98 10  6  0 37 30.0000000  0  8G19G27G31G22G14G18G16G 3
 -15929515.71749 -12412579.05244  22140213.3564   22140217.4594
   -413617.94746                  25310158.1984
  -8736751.80249  -6807838.04444  23592126.6264   23592131.7664
  -8369114.07649  -6521362.94044  22171552.2304   22171555.3464
  16916923.12649  13182006.43144  23938438.2634   23938447.4474
 -24960854.05649 -19449984.05045  20510450.5354   20510453.5294
 -17207276.70149 -13408243.93444  21986815.1764   21986819.3374
 -13650053.55049 -10636382.21844  22710495.4484   22710498.6694
 98 10  6  0 38  0.0000000  0  8G19G27G31G22G14G18G16G 3
 -15993318.75349 -12462295.65044  22128072.1404   22128075.7814
   -496279.21746                  25294428.8294
  -8837059.04249  -6885999.34544  23573038.4564   23573043.3474
  -8279966.48149  -6451897.27844  22188516.4574   22188519.3964
  17027055.07649  13267823.43744  23959395.8344   23959402.8264
 -25006242.22449 -19485351.41545  20501813.5454   20501816.4344
 -17139446.22349 -13355389.00844  21999722.5204   21999726.7574
 -13703290.50549 -10677865.48244  22700364.1824   22700367.6884
 98 10  6  0 38 30.0000000  0  8G19G27G31G22G14G18G16G 3
 -16056952.50249 -12511880.33944  22115963.2234   22115966.8984
   -578936.67846                  25278699.4564
  -8937234.48749  -6964057.92844  23553975.8044   23553979.0554
  -8190551.14449  -6382222.98944  22205531.4384   22205534.6094
  17137232.30449  13353675.74144  23980361.9334   23980367.9684
 -25051163.15249 -19520354.69145  20493265.4494   20493267.9514
 -17071176.70749 -13302191.96844  22012713.7664   22012718.2264
 -13756107.03249 -10719021.12344  22690313.5754   22690317.2134
 98 10  6  0 39  0.0000000  0  8G19G27G31G22G14G18G16G 3
 -16120393.83549 -12561315.09644  22103890.7484   22103894.4084
   -661574.19946                  25262973.2414
  -9037262.57049  -7042001.72544  23534941.5674   23534945.0984
  -8100845.97049  -6312322.85044  22222601.8944   22222605.0874
  17247466.96549  13439572.77244  24001339.2034   24001345.2324
 -25095607.10849 -19554986.30245  20484808.2334   20484810.9354
 -17002435.79949 -13248627.61444  22025794.7604   22025798.8784
 -13808468.38149 -10759822.08844  22680349.4014   22680353.2094
 98 10  6  0 39 30.0000000  0  7G19G27G31G22G14G18G16
 -16183661.45749 -12610614.49544  22091851.1114   22091855.0304
   -744214.51847                  25247246.6284
  -9137171.72549  -7119852.85644  23515929.3254   23515933.9094
  -8010848.99249  -6242195.34144  22239727.4964   22239730.5834
  17357737.66649  13525497.90444  24022323.1044   24022328.5614
 -25139583.72649 -19589253.75445  20476439.6464   20476442.3274
 -16933251.49649 -13194717.74644  22038960.1254   22038964.4424
 98 10  6  0 40  0.0000000  0  7G19G27G31G22G14G18G16
 -16246741.42949 -12659767.66744  22079847.3894   22079851.1934
   -826819.04047   -644272.18744  25231526.8604
  -9236947.72449  -7197600.22744  23496942.4704   23496945.6894
  -7920549.35749  -6171831.98544  22256910.8894   22256914.2644
  17468057.52249  13611461.33844  24043316.4894   24043322.2114
 -25183085.84349 -19623151.46645  20468161.3914   20468164.0554
 -16863620.02949 -13140459.44644  22052210.9454   22052214.4804
 98 10  6  0 40 30.0000000  0  7G19G27G31G22G14G18G16
 -16309632.47849 -12708773.62744  22067879.3594   22067883.3694
   -909371.88647                  25215816.8084
  -9336568.94149  -7275226.99344  23477984.9554   23477988.2364
  -7829934.98549  -6101223.39344  22274153.9924   22274157.4314
  17578438.49849  13697472.38044  24064321.1814   24064327.2724
 -25226120.24449 -19656684.72345  20459972.1894   20459974.5004
 -16793540.78849 -13085852.22944  22065546.4224   22065550.3484
 98 10  6  0 41  0.0000000  0  8G19G27G31G22G14G18G16G13
 -16372358.82649 -12757651.24644  22055942.8694   22055946.6774
   -991897.60047   -772904.51744  25200111.8724
  -9436057.27049  -7352750.23844  23459052.9724   23459057.4394
  -7739017.20749  -6030378.38444  22291455.1224   22291458.7244
  17688872.64849  13783524.86444  24085336.6694   24085340.6014
 -25268696.82949 -19689861.23745  20451870.0704   20451872.1904
 -16723026.95249 -13030906.36544  22078964.5834   22078968.9894
        -0.29756                  25409099.5204
 98 10  6  0 41 30.0000000  0  8G19G27G31G22G14G18G16G13
 -16434935.01549 -12806411.86144  22044034.8504   22044038.9734
  -1074423.29447   -837210.09944  25184407.4494   25184410.6564
  -9535427.00949  -7430181.07444  23440143.0994   23440148.5294
  -7647830.99749  -5959324.20344  22308806.9254   22308810.7184
  17799335.24648  13869599.50644  24106356.7084   24106363.6864
 -25310833.31649 -19722694.82345  20443851.7714   20443854.0334
 -16652105.13349 -12975642.60344  22092460.4994   22092465.1664
   -103302.89146                  25389440.7574
 98 10  6  0 42  0.0000000  0  8G19G27G31G22G14G18G16G13
 -16497386.28649 -12855075.13644  22032150.8364   22032154.5754
  -1156986.53047   -901544.96044  25168696.6834   25168702.6864
  -9634692.52949  -7507530.68244  23421253.0334   23421258.0404
  -7556437.84649  -5888108.76844  22326198.3884   22326202.6154
  17909796.75948  13955673.28744  24127376.6154   24127383.6324
 -25352574.04649 -19755220.02745  20435908.6934   20435910.8654
 -16580805.36849 -12920084.33144  22106028.2234   22106033.2034
   -206660.61646                  25369771.8274
 98 10  6  0 42 30.0000000  0  8G19G27G31G22G14G18G16G13
 -16559709.32449 -12903638.48344  22020291.2694   22020294.9074
  -1239603.44647   -965921.65844  25152974.8804   25152980.8644
  -9733848.73149  -7584795.10344  23402383.6804   23402389.4104
  -7464841.23449  -5816734.80044  22343628.4524   22343632.6054
  18020259.22148  14041747.83844  24148396.7244   24148404.4484
 -25393909.39449 -19787429.34945  20428042.9074   20428045.0464
 -16509139.03249 -12864240.42244  22119665.7964   22119670.7864
   -310050.54046                  25350097.3304
 98 10  6  0 43  0.0000000  0  8G19G27G31G22G14G18G16G13
 -16621858.77649 -12952066.57644  22008464.5024   22008467.9304
  -1322225.18848  -1030302.11844  25137252.5804   25137259.8054
  -9832840.10849  -7661931.10144  23383546.5294   23383552.2434
  -7372993.30049  -5745165.00144  22361106.9254   22361111.1114
  18130762.48248  14127854.15444  24169424.7264   24169427.9434
 -25434767.97349 -19819267.16345  20420267.7944   20420269.8984
 -16437071.04649 -12808083.54144  22133379.8964   22133384.8044
   -413415.56746                  25330427.3574
 98 10  6  0 43 30.0000000  0  8G19G27G31G22G14G18G16G13
 -16683825.16849 -13000352.02944  21996672.6714   21996676.1034
  -1404831.46548  -1094670.50344  25121533.2564   25121539.3824
  -9931636.57349  -7738915.21744  23364746.4734   23364750.9514
  -7280877.42349  -5673386.40944  22378636.3564   22378639.8704
  18241304.53448  14213990.77644  24190460.4364   24190469.8684
 -25475131.92649 -19850719.55445  20412586.5854   20412588.8254
 -16364602.76449 -12751614.74944  22147170.1734   22147174.8204
   -516743.95146                  25310763.8654
 98 10  6  0 44  0.0000000  0  8G19G27G31G22G14G18G16G13
 -16745638.26149 -13048518.02444  21984910.0044   21984913.2554
  -1487436.43148  -1159037.89744  25105813.8644   25105822.3034
 -10030247.88649  -7815755.03944  23345981.3404   23345986.2214
  -7188501.92749  -5601405.51244  22396215.1404   22396218.1874
  18351874.81448  14300149.31244  24211501.5634   24211507.5144
 -25515009.43349 -19881792.89845  20404998.0784   20405000.4114
 -16291761.27549 -12694855.15744  22161031.5084   22161035.8064
   -620042.06246                  25291106.3824
 98 10  6  0 44 30.0000000  0  8G19G27G31G22G14G18G16G13
 -16807312.14449 -13096575.55044  21973174.1374   21973177.4564
  -1570036.67648  -1223401.59144  25090095.2744   25090102.6114
 -10128688.91749  -7892462.19044  23327248.1824   23327252.3544
  -7095856.62149  -5529214.37744  22413845.2644   22413848.4264
  18462459.01948  14386318.72544  24232545.1734   24232553.6124
 -25554387.50149 -19912477.07545  20397504.7554   20397507.1814
 -16218549.72749 -12637807.20544  22174963.3564   22174967.2934
   -723318.82746                  25271454.1294
 98 10  6  0 45  0.0000000  0  8G19G27G31G22G14G18G16G13
 -16868843.64849 -13144522.12344  21961464.9874   21961468.4134
  -1652636.06548  -1287764.58144  25074376.7294   25074387.1544
 -10226968.60449  -7969043.61344  23308546.2954   23308550.6044
  -7002947.19149  -5456817.42144  22431525.7804   22431528.2674
  18573051.05247  14472494.23244  24253590.0344   24253598.7214
 -25593265.31149 -19942771.43845  20390106.5004   20390108.9274
 -16144959.64949 -12580464.29844  22188967.0354   22188971.2644
   -826595.96047                  25251801.1624
 98 10  6  0 45 30.0000000  0  8G19G27G31G22G14G18G16G13
 -16930234.39649 -13192359.01744  21949782.1924   21949786.0594
  -1735239.30148  -1352130.55544  25058658.2014   25058669.3704
 -10325099.49749  -8045509.10544  23289872.5494   23289876.0804
  -6909783.10349  -5384222.02444  22449253.8854   22449256.2794
  18683643.41247  14558670.01244  24274634.8424   24274639.3804
 -25631661.14549 -19972690.23845  20382799.8084   20382802.2374
 -16070998.29849 -12522832.09044  22203041.4314   22203045.8704
   -929889.10247                  25232145.1594
 98 10  6  0 46  0.0000000  0  8G19G27G31G22G14G18G16G13
 -16991479.56749 -13240082.46844  21938127.5574   21938131.1644
  -1817840.27348  -1416494.78844  25042939.9064   25042947.7614
 -10423085.19249  -8121861.45844  23271226.1044   23271229.8354
  -6816377.13549  -5311438.14944  22467028.3924   22467031.7014
  18794232.51747  14644843.23344  24295679.1454   24295686.4164
 -25669578.87749 -20002236.49245  20375584.1524   20375586.8894
 -15996666.65349 -12464911.35044  22217186.2074   22217190.9064
  -1033205.54047                  25212484.7534
 98 10  6  0 46 30.0000000  0  8G19G27G31G22G14G18G16G13
 -17052548.88449 -13287668.88944  21926506.4604   21926510.0034
  -1900419.87448  -1480842.29144  25027225.6344   25027232.3624
 -10520912.09049  -8198090.06644  23252610.0354   23252614.1564
  -6722724.37449  -5238461.96244  22484849.7784   22484852.8944
  18904832.14147  14731024.64344  24316725.1394   24316734.8194
 -25707000.01549 -20031395.79245  20368463.2114   20368465.8354
 -15921943.89849 -12406685.84544  22231405.7394   22231409.8534
  -1136532.96147                  25192821.6564
 98 10  6  0 47  0.0000000  0  8G19G27G31G22G14G18G16G13
 -17113444.19949 -13335119.72444  21914918.6124   21914922.2704
  -1982995.33548  -1545186.56244  25011512.1784   25011520.6174
 -10618576.37149  -8274191.95744  23234024.9544   23234029.5414
  -6628840.64349  -5165305.80044  22502715.4664   22502718.7914
  19015433.89647  14817207.76844  24337772.6984   24337782.6264
 -25743947.94749 -20060186.36445  20361432.3964   20361434.9154
 -15846847.05749 -12348168.85244  22245696.2884   22245700.4634
  -1239876.60747   -966133.77744  25173155.4034
 98 10  6  0 47 30.0000000  0  8G19G27G31G22G14G18G16G13
 -17174166.31049 -13382435.58844  21903363.5694   21903366.8134
  -2065555.87348  -1609519.19744  24995801.9024   24995807.7374
 -10716059.31149  -8350152.55844  23215475.0094   23215479.9964
  -6534724.26249  -5091968.35644  22520624.8584   22520628.0774
  19126037.99546  14903392.64644  24358820.1214   24358828.5604
 -25780430.01449 -20088613.92945  20354490.2894   20354492.6174
 -15771389.28849 -12289370.61444  22260055.5364   22260059.5874
  -1343226.80647  -1046666.22244  25153488.4944
 98 10  6  0 48  0.0000000  0  8G19G27G31G22G14G18G16G13
 -17234718.68449 -13429619.19044  21891840.8054   21891844.0484
  -2148107.32048  -1673844.72344  24980092.9814   24980096.6384
 -10813346.76549  -8425960.83944  23196961.8784   23196965.8824
  -6440385.32649  -5018457.49044  22538577.1694   22538580.1404
  19236650.88746  14989584.36744  24379869.0564   24379879.7294
 -25816445.02749 -20116677.55545  20347636.9394   20347639.3334
 -15695558.50049 -12230281.71844  22274485.7534   22274489.6604
  -1446564.44947  -1127188.91244  25133824.1814   25133831.5534
 98 10  6  0 48 30.0000000  0  8G19G27G31G22G14G18G16G13
 -17295102.78949 -13476671.66844  21880350.1594   21880353.3804
  -2230663.37748  -1738173.81444  24964382.8374   24964387.8834
 -10910432.37949  -8501611.84244  23178486.8084   23178491.8394
  -6345826.03749  -4944774.92144  22556570.9984   22556575.1394
  19347274.21746  15075784.25244  24400920.5964   24400925.9584
 -25852000.59749 -20144383.17845  20340870.7424   20340873.1404
 -15619351.82249 -12170899.91744  22288987.2454   22288991.4784
  -1549870.90447  -1207687.33944  25114165.5834   25114168.3844
 98 10  6  0 49  0.0000000  0  8G19G27G31G22G14G18G16G13
 -17355324.10849 -13523597.29644  21868890.4474   21868893.6264
  -2313222.58248  -1802505.37244  24948671.8154   24948677.9664
 -11007309.03349  -8577100.03744  23160051.4734   23160055.6924
  -6251044.05549  -4870918.81644  22574607.4434   22574610.6964
  19457902.63146  15161988.08544  24421971.8924   24421981.5724
 -25887098.06749 -20171731.84045  20334191.9904   20334194.4294
 -15542780.31649 -12111233.83944  22303558.0164   22303562.4954
  -1653156.68447  -1288169.73744  25094510.7694   25094515.6754
 98 10  6  0 49 30.0000000  0  8G19G27G31G22G14G18G16G13
 -17415411.07949 -13570418.23744  21857456.0174   21857459.0874
  -2395788.88448  -1866842.43444  24932959.3384   24932963.0984
 -11103981.37149  -8652429.03144  23141655.2314   23141659.6124
  -6156054.92249  -4796901.30744  22592683.4304   22592686.8674
  19568522.26746  15248185.05444  24443021.9354   24443027.9864
 -25921737.26049 -20198723.40245  20327600.3734   20327602.8194
 -15465855.42449 -12051292.39444  22318196.4004   22318200.6614
  -1756428.24448  -1368640.98544  25074858.5674   25074863.0234
 98 10  6  0 50  0.0000000  0  8G19G27G31G22G14G18G16G13
 -17475361.44449 -13617132.72844  21846047.6714   21846050.8054
  -2478365.14548  -1931187.29644  24917245.3324   24917251.2604
 -11200448.87349  -8727598.42444  23123298.2914   23123302.5664
  -6060864.94749  -4722727.29344  22610797.3974   22610800.8084
  19679135.94646                  24464071.4554
 -25955893.01449 -20225338.25745  20321100.6754   20321103.1054
 -15388565.53349 -11991066.53644  22332904.5254   22332908.8914
  -1859674.57948  -1449092.66644  25055211.6564   25055215.3214
 98 10  6  0 50 30.0000000  0  8G19G27G31G22G14G18G16G13
 -17535169.22249 -13663736.10944  21834666.4684   21834669.6144
  -2560949.63548  -1995538.54344  24901529.4314   24901535.1884
 -11296718.42649  -8802613.56344  23104978.8304   23104982.3514
  -5965465.75649  -4648390.25344  22628951.3234   22628954.4584
  19789723.27647  15420549.24544  24485115.0024
 -25989554.81249 -20251568.21445  20314694.9904   20314697.3704
 -15310927.58749 -11930569.46044  22347678.8134   22347682.7514
  -1962922.22348  -1529545.34944  25035564.5084   25035569.7294
 98 10  6  0 51  0.0000000  0  8G19G27G31G22G14G18G16G13
 -17594836.06749 -13710229.67744  21823312.0294   21823315.0854
  -2643514.64848  -2059874.64344  24885817.1004   24885823.9704
 -11392775.31749  -8877462.99544  23086700.1754   23086703.9614
  -5869836.07249  -4573873.61344  22647149.2534   22647152.3124
  19900279.90847  15506697.14744  24506154.2254   24506161.2244
 -26022694.95849 -20277391.68945  20308388.6334   20308391.0584
 -15232931.09249 -11869792.99344  22362520.9304   22362524.9404
  -2066168.29248  -1609996.80144  25015917.3814   25015922.9714
 98 10  6  0 51 30.0000000  0  8G19G27G31G22G14G18G16G13
 -17654384.16849 -13756630.71244  21811980.2274   21811983.4324
  -2726085.32648  -2124215.15344  24870104.1004   24870112.2914
 -11488639.92249  -8952162.60044  23068457.6334   23068460.8714
  -5773998.57149  -4499195.04544  22665386.4984   22665389.6544
  20010776.71547  15592798.39444  24527181.2174   24527188.9394
 -26055330.84949 -20302822.23745  20302178.2254   20302180.5684
 -15154588.88049 -11808747.14144  22377428.8304   22377433.2294
  -2169414.74648  -1690448.54844  24996269.8804   24996275.8514
 98 10  6  0 52  0.0000000  0  8G19G27G31G22G14G18G16G13
 -17713788.83549 -13802919.97044  21800675.8814   21800679.1064
  -2808662.11648  -2188560.48444  24854390.0974   24854396.6214
 -11584317.47549  -9026716.43844  23050250.6064   23050253.8074
  -5677942.03449  -4424345.79744  22683665.4174   22683668.8724
  20121211.91047  15678851.69544  24548196.7014   24548203.7854
 -26087452.24749 -20327851.88545  20296065.7254   20296068.0734
 -15075899.02649 -11747430.39844  22392402.8244   22392407.6674
  -2272659.39548  -1770898.81244  24976622.7954   24976629.7704
 98 10  6  0 52 30.0000000  0  8G19G27G31G22G14G18G16G13
 -17773036.52449 -13849086.90944  21789401.5414   21789405.2374
  -2891232.99048  -2252901.20044  24838676.9714   24838683.8174
 -11679793.88349  -9101113.54944  23032081.8074   23032085.0104
  -5581645.80149  -4349309.78244  22701989.4694   22701992.8694
  20231588.61147  15764859.32744  24569200.6864   24569208.3844
 -26119062.76349 -20352483.43845  20290050.2334   20290052.6984
 -14996856.80649 -11685839.07644  22407443.9514   22407448.9484
  -2375894.21249  -1851341.41444  24956978.0644   24956983.3564
 98 10  6  0 53  0.0000000  0  8G19G27G31G22G14G18G16G13
 -17832107.29349 -13895115.98444  21778160.6034   21778164.0004
  -2973787.83148  -2317229.43244  24822966.7484   24822973.3784
 -11775046.31049  -9175336.11244  23013956.0474   23013959.3844
  -5485103.84149  -4274082.28544  22720361.0114   22720364.1034
  20341932.73747  15850841.69144  24590198.7234   24590204.0264
 -26150149.45849 -20376706.81945  20284134.5464   20284136.8814
 -14917444.08049 -11623959.04844  22422555.9634   22422560.6374
  -2479082.00449  -1931747.32244  24937342.3784   24937347.2304
 98 10  6  0 53 30.0000000  0  8G19G27G31G22G14G18G16G13
 -17890980.49749 -13940991.10544  21766957.3884   21766961.0234
  -3056346.51248  -2381560.67444  24807255.9384   24807262.2884
 -11870074.05549  -9249383.60744  22995872.6054   22995875.9794
  -5388330.39549  -4198674.40544  22738776.4814   22738779.8964
  20452256.16847  15936807.83044  24611192.6744   24611197.8884
 -26180722.13649 -20400529.66845  20278316.8004   20278319.0574
 -14837668.98449 -11561796.65644  22437736.8004   22437740.8174
  -2582215.79349  -2012111.12444  24917716.5874   24917721.7664
 98 10  6  0 54  0.0000000  0  8G19G27G31G22G14G18G16G13
 -17949657.48649 -13986713.33744  21755791.4054   21755794.7284
  -3138915.45847  -2445899.92144  24791543.1474   24791549.9934
 -11964871.79649  -9323251.88344  22977832.2194   22977835.4414
  -5291331.63649  -4123090.96944  22757234.7274   22757238.0474
  20562553.57347  16022753.68344  24632182.1784   24632193.0994
 -26210782.36749 -20423953.20845  20272596.6724   20272598.8894
 -14757550.32849 -11499366.54744  22452982.9744   22452986.4554
  -2685304.94149  -2092440.13344  24898099.2594   24898103.8324
 98 10  6  0 54 30.0000000  0  8G19G27G31G22G14G18G16G13
 -18008135.13949 -14032280.23744  21744663.5154   21744666.6764
  -3221484.80447  -2510239.46644  24775830.8044   24775835.9044
 -12059421.78549  -9396927.09944  22959839.7554   22959843.7234
  -5194114.60849  -4047337.45244  22775734.1914   22775737.7074
  20672838.25947  16108689.68344  24653169.3144   24653176.1164
 -26240334.09249 -20446980.50745  20266973.1634   20266975.3764
 -14677084.88549 -11436666.21244  22468295.0474   22468299.1184
  -2788343.90649  -2172730.00544  24878491.4604   24878492.9754
 98 10  6  0 55  0.0000000  0  8G19G27G31G22G14G18G16G13
 -18066417.59749 -14077695.03744  21733572.7534   21733575.9264
  -3304046.69647  -2574573.22144  24760119.8944   24760125.9134
 -12153723.26349  -9470408.67444  22941895.1084   22941898.9694
  -5096696.26449  -3971427.07844  22794272.3624   22794275.8884
  20783107.01447  16194613.24544  24674152.9834   24674157.4714
 -26269372.61449 -20469607.91045  20261447.2764   20261449.5204
 -14596271.50849 -11373694.75944  22483673.2104   22483677.3934
  -2891326.13949  -2252975.65644  24858894.2844   24858898.4194
 98 10  6  0 55 30.0000000  0  8G19G27G31G22G14G18G16G13
 -18124539.45349 -14122984.69144  21722512.3804   21722515.5884
  -3386618.24347  -2638914.46144  24744406.4954   24744413.9134
 -12247800.56049  -9543715.56144  22923992.8114   22923996.6144
  -4999107.26849  -3895383.72644  22812843.0944   22812846.5434
  20893324.92447  16280497.22144  24695126.6134   24695133.2104
 -26297913.07849 -20491847.21245  20256016.2984   20256018.4294
 -14515141.03349 -11310476.20844  22499111.6364   22499116.1474
  -2994290.09549  -2333207.10344  24839300.7324   24839304.6524
 98 10  6  0 56  0.0000000  0  8G19G27G31G22G14G18G16G13
 -18182494.13549 -14168144.07844  21711483.8554   21711487.3684
  -3469170.41147  -2703240.62644  24728697.4604   24728704.5174
 -12341644.23049  -9616840.40144  22906135.1144   22906138.3244
  -4901339.18549  -3819200.82344  22831447.7754   22831451.4334
  21003495.36147  16366344.17244  24716091.5734   24716101.0054
 -26325935.37949 -20513682.74745  20250683.9414   20250686.0484
 -14433689.40049 -11247007.40044  22514611.0184   22514616.3754
  -3097226.84649  -2413417.31544  24819712.2454   24819715.2194
 98 10  6  0 56 30.0000000  0  8G19G27G31G22G14G18G16G13
 -18240282.11049 -14213173.57144  21700487.2014   21700490.3124
  -3551701.66947  -2767550.47844  24712992.2254   24713000.0604
 -12435260.72849  -9689788.19944  22888320.3964   22888324.3954
  -4803409.48549  -3742891.98744  22850083.4624   22850086.9454
  21113615.74547  16452152.17644  24737046.7894   24737054.1164
 -26353450.20049 -20535122.83745  20245447.9134   20245450.1814
 -14351912.91749 -11183285.47044  22530172.6044   22530178.1504
  -3200131.36849  -2493602.43244  24800129.6324   24800133.8884
 98 10  6  0 57  0.0000000  0  8G19G27G31G22G14G18G16G13
 -18297913.40149 -14258080.97944  21689520.0524   21689523.4994
  -3634221.60447  -2831851.46844  24697288.7674   24697297.4554
 -12528642.07049  -9762552.78044  22870550.3324   22870553.7794
  -4705318.40749  -3666457.39344  22868749.6424   22868752.7244
  21223672.89347  16537910.87444  24757990.0014   24757997.3254
 -26380446.59949 -20556158.96145  20240310.5844   20240312.9634
 -14269821.22449 -11119317.92744  22545794.4824   22545799.4904
  -3303001.70949  -2573760.92844  24780553.6864   24780559.1274
 98 10  6  0 57 30.0000000  0  8G19G27G31G22G14G18G16G13
 -18355379.76449 -14302859.87644  21678584.6574   21678587.8764
  -3716729.02647  -2896142.73744  24681587.3894   24681592.6574
 -12621769.96049  -9835119.85244  22852828.4484   22852832.1994
  -4607048.98649  -3589883.83244  22887449.7134   22887452.8114
  21333682.26548  16623632.36144  24778924.4124   24778931.3834
 -26406913.67949 -20576782.62445  20235274.1394   20235276.4774
 -14187409.69749 -11055101.15444  22561476.8114   22561481.6444
  -3405827.49449  -2653884.72544  24760986.2944   24760991.5054
 98 10  6  0 58  0.0000000  0  8G19G27G31G22G14G18G16G13
 -18412673.05249 -14347503.91844  21667682.2134   21667685.3474
  -3799219.27247  -2960420.64144  24665889.7044   24665897.5664
 -12714626.16149  -9907475.22644  22835158.1004   22835162.0314
  -4508593.67449  -3513165.41544  22906184.8054   22906187.9754
  21443654.47448  16709324.92644  24799851.3144   24799857.9984
 -26432867.31149 -20597006.19445  20230335.4764   20230337.5464
 -14104664.15349 -10990624.12144  22577222.8624   22577227.5914
  -3508583.19749  -2733953.93644  24741432.3274   24741437.3954
 98 10  6  0 58 30.0000000  0  8G19G27G31G22G14G18G16G13
 -18469813.59549 -14392028.94744  21656808.7184   21656811.7674
  -3881712.66947  -3024700.97944  24650191.2094   24650197.9564
 -12807208.77049  -9979617.40444  22817539.6564   22817543.8044
  -4409967.96649  -3436314.22144  22924952.8694   22924956.1724
  21553577.83748  16794979.38144  24820769.0244   24820777.4634
 -26458324.55649 -20616842.96245  20225490.8444   20225493.1194
 -14021590.04449 -10925891.06244  22593031.3884   22593035.8964
  -3611284.87249  -2813981.05744  24721888.8314   24721894.3974
 98 10  6  0 59  0.0000000  0  8G19G27G31G22G14G18G16G13
 -18526807.82149 -14436439.97144  21645963.1754   21645966.1624
  -3964206.09347  -3088981.32044  24634494.0014   24634503.4334
 -12899517.33749 -10051546.04444  22799973.9024   22799978.3994
  -4311163.12949  -3359323.44344  22943754.8454   22943758.0834
  21663440.22648  16880586.37644  24841674.9714   24841683.9074
 -26483274.93049 -20636284.76445  20220742.7194   20220745.0714
 -13938198.65249 -10860910.77444  22608899.8994   22608904.7714
  -3713938.96249  -2893971.09444  24702354.2294   24702360.2514
 98 10  6  0 59 30.0000000  0  8G19G27G31G22G14G18G16G13
 -18583649.93549 -14480732.47445  21635146.4054   21635149.4344
  -4046695.47747  -3153258.57844  24618796.9314   24618801.7824
 -12991567.41249 -10123273.26344  22782457.6794   22782461.9024
  -4212180.42649  -3282194.06644  22962590.9354   22962593.8344
  21773236.76249  16966142.03644  24862568.5534   24862577.4894
 -26507719.33649 -20655332.30145  20216091.0914   20216093.5194
 -13854499.10449 -10795690.36244  22624827.3904   22624832.5384
  -3816529.72949  -2973911.83444  24682832.0004   24682835.7264
 98 10  6  1  0  0.0000000  0  8G19G27G31G22G14G18G16G13
 -18640322.18049 -14524892.61844  21624362.0214   21624364.9274
  -4129153.67747  -3217511.54944  24603104.6024   24603110.8244
 -13083346.66249 -10194789.43644  22764993.0134   22764996.7314
  -4113010.15949  -3204918.52244  22981462.3774   22981465.4554
  21882971.31849  17051649.37744  24883450.4044   24883457.2694
 -26531624.45249 -20673959.61045  20211542.2824   20211544.4414
 -13770494.59349 -10730232.33044  22640813.1634   22640817.5544
  -3919052.18449  -3053799.35844  24663322.3334   24663327.7524
 98 10  6  1  0 30.0000000  0  8G19G27G31G22G14G18G16G13
 -18696833.63149 -14568927.47644  21613607.9724   21613611.0564
  -4211586.52247  -3281744.77744  24587414.0854
 -13174869.35949 -10266105.70144  22747576.9244   22747579.7654
  -4013668.95349  -3127509.78644  23000366.4684   23000369.3684
  21992622.70249  17137091.94644  24904316.1144   24904325.7944
 -26554979.03549 -20692157.93345  20207098.1244   20207100.1564
 -13686214.20949 -10664559.32544  22656851.5044   22656856.2604
  -4021517.78349  -3133642.58644  24643823.5274   24643827.3324
 98 10  6  1  1  0.0000000  0  8G19G27G31G22G14G18G16G13
 -18753183.29449 -14612836.27144  21602884.9914   21602888.2784
  -4293432.07246                  24571740.0714
 -13266150.45449 -10337233.70344  22730206.4194   22730209.7774
  -3914162.06049  -3049971.93844  23019301.6354   23019304.6854
  22102176.52149  17222458.47344  24925163.2444   24925171.4364
 -26577785.97149 -20709929.51845  20202757.9604   20202760.1454
 -13601673.52749 -10598683.48844  22672939.3054   22672943.9244
  -4123922.45649  -3213438.35444  24624336.5434   24624339.2354
 98 10  6  1  1 30.0000000  0  7G19G31G22G14G18G16G13
 -18809357.37949 -14656608.26344  21592195.4524   21592198.6164
 -13357173.06249 -10408160.28644  22712885.3464   22712888.5614
  -3814490.73349  -2972305.96844  23038268.5494   23038271.6504
  22211648.69149  17307761.36044  24945994.9894   24946004.6704
 -26600042.36949 -20727272.11745  20198522.4924   20198524.6554
 -13516860.40549 -10532595.36044  22689078.5374   22689082.9794
  -4226258.93649  -3293180.98944  24604862.8764   24604865.7524
 98 10  6  1  2  0.0000000  0  7G19G31G22G14G18G16G13
 -18865357.41549 -14700244.63844  21581539.0614   21581542.1344
 -13447928.74749 -10478878.86944  22695615.3454   22695619.3574
  -3714666.69749  -2894521.00544  23057264.3944   23057267.4694
  22321032.03949  17392995.01744  24966809.9144   24966818.8504
 -26621768.17949 -20744201.27545  20194388.1794   20194390.1964
 -13431779.47249 -10466298.55544  22705268.6524   22705272.8864
  -4328553.19149  -3372890.73444  24585397.2904   24585402.0594
 98 10  6  1  2 30.0000000  0  8G19G27G31G22G14G18G16G13
 -18921178.68749 -14743741.72444  21570916.4314   21570919.6044
         0.20057         1.00754  24524708.1834   24524713.0954
 -13538416.71449 -10549388.85344  22678395.6844   22678399.3614
  -3614689.84949  -2816616.96544  23076289.2484   23076292.0714
  22430328.84449  17478161.26144  24987608.3404   24987617.7724
 -26642989.92249 -20760737.65245  20190349.8924   20190351.9904
 -13346421.10649 -10399785.56544  22721511.4674   22721516.1454
  -4430790.63849  -3452556.20244  24565941.9614   24565944.7184
 98 10  6  1  3  0.0000000  0  8G19G27G31G22G14G18G16G13
 -18976802.41449 -14787084.88144  21560331.6994   21560334.8764
    -82397.95547    -64205.21244  24509028.1434   24509035.5004
 -13628621.22049 -10619677.95644  22661229.7344   22661233.4334
  -3514540.80449  -2738578.74944  23095347.0504   23095350.2224
  22539555.74649  17563273.04744  25008393.6174   25008403.5464
 -26663692.17149 -20776869.23545  20186410.3424   20186412.4364
 -13260760.62349 -10333037.16244  22737812.0554   22737816.5554
  -4532968.29849  -3532175.09744  24546498.2444   24546501.5734
 98 10  6  1  3 30.0000000  0  8G19G27G31G22G14G18G16G13
 -19032232.64849 -14830277.26944  21549783.6044   21549786.7614
   -164822.18047   -128431.76044  24493343.1744   24493348.1234
 -13718540.23149 -10689744.60244  22644118.4734   22644122.8394
  -3414236.77149  -2660419.76744  23114434.4504   23114437.3894
  22648694.89748  17648316.42544  25029161.6254   25029170.0644
 -26683877.11149 -20792597.72745  20182569.1694   20182571.3834
 -13174807.15749 -10266060.45544  22754168.6494   22754173.2964
  -4635095.74849  -3611754.84144  24527063.6194   24527067.9424
 98 10  6  1  4  0.0000000  0  8G19G27G31G22G14G18G16G13
 -19087475.75749 -14873323.84444  21539271.3094   21539274.4384
   -247269.09248   -192675.98944  24477653.8804   24477659.1794
 -13808176.71249 -10759591.10344  22627061.4944   22627065.0754
  -3313789.39449  -2582149.09244  23133548.8464   23133552.2514
  22757728.12448  17733277.27344  25049909.9814   25049917.1684
 -26703542.12549 -20807921.08645  20178827.0044   20178829.0094
 -13088573.08549 -10198865.09844  22770578.4514   22770583.3584
  -4737172.32649  -3691294.92944  24507639.4424   24507643.1894
 98 10  6  1  4 30.0000000  0  8G19G27G31G22G14G18G16G13
 -19142534.36949 -14916226.66044  21528794.1234   21528797.1214
   -329729.69048   -256930.86444  24461962.1114   24461968.3534
 -13897532.84449 -10829219.15144  22610058.0384   22610060.9344
  -3213208.52749  -2503774.41044  23152688.7414   23152691.4124
  22866649.31148  17818150.84944  25070637.4254   25070647.6024
 -26722670.25249 -20822826.09445  20175187.0484   20175189.0084
 -13002052.17749 -10131446.23144  22787042.9924   22787047.7134
  -4839187.40249  -3770787.07944  24488226.5044   24488230.0664
 98 10  6  1  5  0.0000000  0  8G19G27G31G22G14G18G16G13
 -19197389.06949 -14958970.58144  21518355.3924   21518358.4854
   -412154.13148   -321157.52244  24446276.8704   24446282.4334
 -13986573.14249 -10898601.10444  22593113.9194   22593117.0224
  -3112477.95049  -2425283.06844  23171856.9364   23171860.1204
  22975472.12848  17902947.74144  25091345.5064   25091356.4274
 -26741218.27649 -20837279.07546  20171657.5784   20171659.5124
 -12915230.33749 -10063792.87644  22803564.7244   22803569.1914
  -4941112.46149  -3850209.04544  24468830.6734   24468834.6644
 98 10  6  1  5 30.0000000  0  8G19G27G31G22G14G18G16G13
 -19252049.92149 -15001563.45444  21507953.7964   21507956.7354
   -494525.73548   -385343.00644  24430601.9734   24430609.0424
 -14075285.97649 -10967727.89844  22576232.3974   22576234.7194
  -3011591.17449  -2346670.00944  23191054.8684   23191058.3384
  23084202.58348  17987672.73244  25112036.0254   25112044.2174
 -26759193.37949 -20851285.63346  20168237.1144   20168239.1064
 -12828126.71549  -9995919.94844  22820140.0704   22820144.0554
  -5042933.27849  -3929549.77744  24449454.4534   24449457.1874
 98 10  6  1  6  0.0000000  0  8G19G27G31G22G14G18G16G13
 -19306539.58049 -15044022.92944  21497584.6824   21497587.8654
   -576863.39848   -449502.03144  24414934.0834   24414939.0474
 -14163683.24549 -11036608.79044  22559411.4244   22559414.5104
  -2910540.79249  -2267929.46144  23210284.0174   23210287.2374
  23192847.00348                  25132710.4264
 -26776617.71349 -20864863.02545  20164921.3234   20164923.0654
 -12740757.52749  -9927840.08544  22836766.4754   22836770.5234
  -5144658.66649  -4008816.09844  24430096.5484   24430099.7304
 98 10  6  1  6 30.0000000  0  8G19G27G31G22G14G18G16G13
 -19360862.22249 -15086352.25544  21487247.4434   21487250.3534
   -659172.58549   -513638.82444  24399271.3844   24399280.0714
 -14251758.33949 -11105238.63844  22542651.0694   22542654.0584
  -2809308.30049  -2189047.02244  23229547.9654   23229551.4474
  23301418.00448  18156931.40444  25153370.6534   25153382.3194
 -26793491.90449 -20878011.73645  20161710.2414   20161711.9204
 -12653118.98149  -9859550.32844  22853443.7514   22853447.1764
  -5246275.63149  -4087997.89944  24410759.7484   24410763.7504
 98 10  6  1  7  0.0000000  0  8G19G27G31G22G14G18G16G13
 -19415032.60949 -15128562.93444  21476939.1824   21476942.3254
   -741466.72049   -577763.89744  24383611.1654   24383615.7844
 -14339506.99749 -11173614.12544  22525952.4714   22525955.8774
  -2707898.63949  -2110026.52144  23248845.2524   23248848.9504
  23409903.27147  18241465.31244  25174014.7664   25174021.5994
 -26809827.31549 -20890740.62045  20158601.7944   20158603.5554
 -12565235.38749  -9791069.62044  22870167.1764   22870170.9634
  -5347785.75648  -4167096.48044  24391443.0944   24391445.1714
 98 10  6  1  7 30.0000000  0  8G19G27G31G22G14G18G16G13
 -19469067.49849 -15170668.02044  21466656.6864   21466659.4784
   -823777.24149   -641901.75444  24367947.9514   24367951.6014
 -14426964.10349 -11241762.42844  22509309.8114   22509313.0434
  -2606340.15549  -2030890.05644  23268171.3064   23268174.9184
  23518268.36447                  25194635.8194
 -26825663.75249 -20903080.69245  20155588.3264   20155589.9664
 -12477127.60149  -9722414.22944  22886933.3544   22886937.2184
  -5449224.88148  -4246139.68544  24372139.5304   24372142.9074
 98 10  6  1  8  0.0000000  0  8G19G27G31G22G14G18G16G13
 -19522943.56649 -15212649.34744  21456404.4854   21456407.0454
   -906097.34049   -706047.03544  24352282.8724   24352289.0674
 -14514124.29149 -11309679.37344  22492723.6964   22492726.8594
  -2504654.00249  -1951654.11244  23287521.7914   23287525.4034
  23626497.01547  18410239.57044  25215231.4844   25215238.3194
 -26840991.55149 -20915024.42245  20152671.5384   20152673.3614
 -12388785.49249  -9653576.23844  22903744.3314   22903749.3594
  -5550588.49748  -4325124.05444  24352850.8384   24352852.0064
 98 10  6  1  8 30.0000000  0  8G19G27G31G22G14G18G16G13
 -19576638.23049 -15254489.30644  21446186.9124   21446189.5284
   -988410.62349   -770187.03644  24336619.0624   24336624.3144
 -14600967.08949 -11377349.00244  22476198.0304   22476201.4194
  -2402861.09549  -1872334.98244  23306892.1494   23306896.2094
  23734578.70747  18494459.04244  25235798.8624   25235808.0464
 -26855788.83649 -20926554.76145  20149855.3864   20149857.5034
 -12300201.60449  -9584549.85444  22920601.5304   22920604.9004
  -5651870.79548  -4404045.08244  24333576.8974   24333580.2724
 98 10  6  1  9  0.0000000  0  8G19G27G31G22G14G18G16G13
 -19630139.14949 -15296178.28844  21436005.8624   21436008.4174
  -1070709.86949   -834316.12144  24320957.7884   24320962.7314
 -14687491.59049 -11444770.60744  22459732.7224   22459736.4354
  -2300972.24449  -1792941.07944  23326281.1654   23326284.6374
  23842510.56947  18578561.68544  25256338.5864   25256350.0044
 -26870059.05849 -20937674.40145  20147139.7534   20147141.9614
 -12211385.05749  -9515342.17144  22937503.1544   22937506.8374
  -5753093.10948  -4482919.34744  24314314.6554   24314317.1564
 98 10  6  1  9 30.0000000  0  8G19G27G31G22G14G18G16G13
 -19683421.41749 -15337696.88844  21425866.3364   21425869.1584
  -1152963.66349   -898409.77744  24305304.9344   24305309.5324
 -14773674.60949 -11511926.11344  22443332.5794   22443335.6874
  -2198961.90849  -1713452.52244  23345693.0304   23345696.5934
  23950334.47447  18662580.20344  25276857.1734   25276861.0564
 -26883783.30949 -20948368.60145  20144527.9664   20144530.1264
 -12122311.02349  -9445933.85044  22954453.4074   22954457.4654
  -5854243.14248  -4561737.30644  24295065.7924   24295069.0284
 98 10  6  1 10  0.0000000  0  8G19G27G31G22G14G18G16G13
 -19736505.30549 -15379060.90344  21415764.8174   21415767.4604
  -1235186.13249   -962479.07344  24289658.4824   24289661.6264
 -14859509.76149 -11578810.56344  22426998.9474   22427002.1494
  -2096841.50349  -1633878.17944  23365125.6784   23365130.2154
  24058063.38947                  25297358.0874
 -26896946.26949 -20958625.42745  20142023.0764   20142025.3184
 -12032988.76749  -9376332.11344  22971450.7984   22971455.0414
  -5955315.02148  -4640494.37444  24275831.9214   24275835.9854
 98 10  6  1 10 30.0000000  0  8G19G27G31G22G14G18G16G13
 -19789431.35149 -15420301.91745  21405693.3444   21405696.2694
  -1317403.64849  -1026544.50944  24274013.0704   24274017.5274
 -14945021.68749 -11645443.14844  22410726.4784   22410729.7604
  -1994613.19549  -1554219.76144  23384578.9964   23384582.6034
  24165691.63746                  25317839.6374
 -26909561.03649 -20968455.08745  20139622.6464   20139624.8474
 -11943435.81449  -9306550.60744  22988491.9384   22988495.4264
  -6056321.11348  -4719200.18044  24256611.3624   24256614.3954
 98 10  6  1 11  0.0000000  0  8G19G27G31G22G14G18G16G13
 -19842218.11449 -15461434.39645  21395648.2574   21395651.4364
  -1399630.52349  -1090617.25044  24258365.7514   24258372.0424
 -15030226.26449 -11711836.23944  22394512.1934   22394515.3894
  -1892273.20949  -1474474.32344  23404053.7074   23404058.0064
  24273215.66246                  25338301.1314
 -26921638.95849 -20977866.42545  20137324.4144   20137326.5604
 -11853668.02149  -9236601.71344  23005573.7114   23005578.9094
  -6157260.98748  -4797854.36544  24237402.8974   24237406.9484
 98 10  6  1 11 30.0000000  0  8G19G27G31G22G14G18G16G13
 -19894840.67649 -15502438.92645  21385634.3684   21385637.7074
  -1481853.77749  -1154687.18244  24242718.9314   24242725.1054
 -15115100.02449 -11777971.54044  22378361.3684   22378364.9284
  -1789811.49049  -1394634.04544  23423551.8954   23423555.6054
  24380632.57046                  25358741.2494
 -26933142.76149 -20986830.39145  20135135.3334   20135137.3264
 -11763661.64249  -9166466.90344  23022701.2674   23022705.7754
  -6258087.73848  -4876420.43844  24218216.7994   24218218.1644
 98 10  6  1 12  0.0000000  0  8G19G27G31G22G14G18G16G13
 -19947283.15949 -15543303.13245  21375654.9074   21375657.9894
  -1564084.31549  -1218762.80544  24227070.9014   24227076.9184
 -15199643.17249 -11843849.22444  22362273.6624   22362276.2394
  -1687231.81049  -1314701.83044  23443072.4804   23443076.0004
  24487917.68246                  25379154.3924
 -26944061.68149 -20995338.60045  20133057.3994   20133059.6544
 -11673410.31049  -9096141.21944  23039875.6464   23039880.2834
  -6358780.64848  -4954882.22144  24199054.9854   24199059.0174
 98 10  6  1 12 30.0000000  0  7G19G27G31G22G18G16G13
 -19999530.16149 -15584015.01245  21365712.6534   21365715.7884
  -1646309.01949  -1282833.90244  24211424.1344   24211429.6634
 -15283846.38949 -11909462.03144  22346250.0734   22346253.2354
  -1584527.97249  -1234672.87044  23462616.4584   23462619.7064
 -26954405.89049 -21003398.98145  20131088.9374   20131091.2384
 -11582906.18049  -9025618.55944  23057098.0944   23057103.1024
  -6459342.54849  -5033241.96744  24179918.7034   24179921.5824
 98 10  6  1 13  0.0000000  0  8G19G27G31G22G 3G18G16G13
 -20051568.12749 -15624564.00445  21355810.1554   21355812.8384
  -1728527.48149  -1346900.13944  24195778.2354   24195783.2074
 -15367705.11949 -11974806.40544  22330291.9044   22330295.0774
  -1481721.57649  -1154563.99544  23482179.7874   23482183.1614
         0.22059         0.79754  22219916.7494   22219919.8394
 -26964197.88649 -21011029.06045  20129225.4704   20129227.7294
 -11492170.72749  -8954915.65144  23074364.6014   23074368.8154
  -6559795.67949  -5111516.93444  24160802.6264   24160804.5974
 98 10  6  1 13 30.0000000  0  8G19G27G31G22G 3G18G16G13
 -20103395.46249 -15664948.87145  21345947.7224   21345950.6524
  -1810735.48149  -1410958.20244  24180134.3904   24180139.5874
 -15451203.13949 -12039869.71244  22314402.5454   22314405.9594
  -1378813.30849  -1074375.73644  23501762.7004   23501766.9164
    -17370.17949    -13534.53644  22216611.2014   22216614.4144
 -26973435.57449 -21018227.21345  20127467.6214   20127469.6104
 -11401208.60549  -8884036.12344  23091673.9834   23091678.8514
  -6660131.70049  -5189700.65344  24141709.2364   24141712.3154
 98 10  6  1 14  0.0000000  0  8G19G27G31G22G 3G18G16G13
 -20155011.25749 -15705168.90345  21336125.4724   21336128.5324
  -1892921.19149  -1474998.89844  24164494.6234   24164499.2294
 -15534317.43549 -12104634.01944  22298586.4634   22298589.6164
  -1275774.65849   -994085.87944  23521370.2944   23521373.6894
    -34157.53549    -26615.54844  22213416.6314   22213419.6964
 -26982120.97549 -21024995.01145  20125814.9174   20125816.8614
 -11310012.61949  -8812974.38544  23109027.9034   23109032.0594
  -6760350.23649  -5267792.87344  24122637.6664   24122641.6044
 98 10  6  1 14 30.0000000  0  8G19G27G31G22G 3G18G16G13
 -20206433.90049 -15745238.42845  21326339.9154   21326343.0334
  -1975079.41249  -1539018.16444  24148860.6204   24148866.2734
 -15617043.05149 -12169095.45244  22282844.2084   22282846.8954
  -1172603.52049   -913692.79244  23541002.9374   23541006.0164
    -50375.57849    -39252.94744  22210330.2884   22210333.4354
 -26990256.97249 -21031334.70345  20124266.5374   20124268.5194
 -11218607.85549  -8741749.96144  23126421.3904   23126427.3014
  -6860465.58649  -5345804.67644  24103586.3424   24103589.9374
 98 10  6  1 15  0.0000000  0  8G19G27G31G22G 3G18G16G13
 -20257667.24049 -15785160.45345  21316590.1724   21316593.3294
  -2057220.14249  -1603023.83144  24133230.0444   24133235.2864
 -15699381.85449 -12233255.46644  22267175.6384   22267178.7444
  -1069307.09449   -833202.05744  23560659.4434   23560662.3074
    -66028.40349    -51449.91944  22207351.6444   22207354.3994
 -26997834.80749 -21037239.46646  20122824.5544   20122826.4704
 -11127015.96649  -8670379.72644  23143850.8494   23143856.0904
  -6960461.61249  -5423723.50544  24084557.5794   24084559.8344
 98 10  6  1 15 30.0000000  0  8G19G27G31G22G 3G18G16G13
 -20308728.55549 -15824948.43445  21306873.4354   21306876.6224
  -2139367.13049  -1667034.33644  24117598.1014   24117602.9884
 -15781345.22249 -12297122.94644  22251578.5604   22251580.9764
   -965891.88049   -752618.78044  23580338.5814   23580341.8744
    -81113.02649    -63204.12844  22204481.2674   22204484.1584
 -27004836.79549 -21042695.51946  20121492.3454   20121493.9574
 -11035238.37049  -8598864.79044  23161315.5884   23161321.9464
  -7060323.98649  -5501538.19844  24065554.5164   24065559.4364
 98 10  6  1 16  0.0000000  0  8G19G27G31G22G 3G18G16G13
 -20359624.68549 -15864607.70745  21297188.1144   21297191.3054
  -2221523.75949  -1731052.34444  24101963.8634   24101968.2554
 -15862949.03849 -12360710.25644  22236049.7894   22236051.8964
   -862369.99749   -671952.38944  23600038.2534   23600041.5154
    -95639.62249    -74523.51744  22201716.9824   22201719.1124
 -27011261.81049 -21047701.98546  20120269.7504   20120271.2764
 -10943272.52449  -8527203.15244  23178816.0594   23178823.0974
  -7160067.71149  -5579260.45644  24046574.0104   24046576.2364
 98 10  6  1 16 30.0000000  0  8G19G27G31G22G 3G18G16G13
 -20410350.24249 -15904134.06845  21287535.6894   21287538.5304
  -2303677.41949  -1795068.03244  24086330.2594   24086335.3824
 -15944203.38349 -12424025.24544  22220587.4594   22220590.0874
   -758773.29149   -591227.68144  23619751.9824   23619755.1974
   -109595.01549    -85397.81044  22199061.3544   22199063.3384
 -27017110.46749 -21052259.34246  20119156.5534   20119158.1334
 -10851124.98049  -8455399.92344  23196351.2784   23196357.3074
  -7259680.78149  -5656880.92644  24027618.3004   24027622.5384
 98 10  6  1 17  0.0000000  0  8G19G27G31G22G 3G18G16G13
 -20460885.47049 -15943512.12345  21277919.4064   21277921.7964
  -2385819.91049  -1859075.01444  24070698.9844   24070703.6544
 -16025105.48549 -12487065.75644  22205191.9144   22205194.7314
   -655105.78949   -510447.80744  23639479.4264   23639483.7624
   -122973.56049    -95822.61444  22196515.4714   22196517.8094
 -27022383.11949 -21056367.86946  20118153.1514   20118154.8394
 -10758779.33649  -8383442.34144  23213924.0574   23213930.0524
  -7359144.25449  -5734384.84744  24008690.9554   24008694.1024
 98 10  6  1 17 30.0000000  0  8G19G27G31G22G 3G18G16G13
 -20511224.22149 -15982737.08045  21268340.0724   21268342.4764
  -2467920.17449  -1923049.10544  24055076.0564   24055079.5474
 -16105643.31649 -12549822.43044  22189866.0874   22189869.2794
   -551348.91049   -429598.30844  23659223.6064   23659227.0264
   -135770.41149   -105794.14744  22194080.6264   22194083.0604
 -27027076.30149 -21060024.86546  20117260.0484   20117261.7944
 -10666220.70949  -8311318.80544  23231537.4634   23231543.3924
  -7458465.71949  -5811778.10144  23989790.4584   23989791.9724
 98 10  6  1 18  0.0000000  0  8G19G27G31G22G 3G18G16G13
 -20561363.95749 -16021806.96044  21258798.8084   21258801.1914
  -2549952.82549  -1986970.50344  24039466.1554   24039469.5874
 -16185810.12949 -12612290.01044  22174611.0334   22174613.8464
   -447516.63149   -348690.04144  23678982.3554   23678984.9224
   -147985.18649   -115312.11844  22191756.1904   22191759.0874
 -27031218.09049 -21063252.20746  20116472.0444   20116473.6954
 -10573461.83549  -8239039.22744  23249189.1104   23249194.5264
  -7557657.49549  -5889070.32844  23970915.0104   23970917.3854
 98 10  6  1 18 30.0000000  0  8G19G27G31G22G 3G18G16G13
 -20611283.72449 -16060705.43944  21249299.3104   21249301.8934
  -2631915.65449  -2050837.53644  24023868.8094   24023872.0254
 -16265591.87049 -12674457.53144  22159429.2064   22159432.0954
   -343606.15949   -267720.86844  23698756.0324   23698759.2454
   -159619.98549   -124378.16444  22189541.9554   22189544.1684
 -27034808.43249 -21066049.85546  20115788.5424   20115790.2774
 -10480517.43849  -8166615.10544  23266876.0414   23266880.6624
  -7656709.15049  -5966253.36544  23952065.6784   23952067.9544
 98 10  6  1 19  0.0000000  0  8G19G27G31G22G 3G18G16G13
 -20660988.78849 -16099436.61644  21239840.4374   21239842.8794
  -2713830.92849  -2114667.50044  24008280.5734   24008285.3094
 -16344983.42649 -12736321.00444  22144321.7174   22144324.5754
   -239600.95449   -186677.86544  23718547.8364   23718551.5884
   -170698.54349   -133010.76744  22187433.6664   22187435.9774
 -27037841.70949 -21068413.42946  20115211.3384   20115213.0224
 -10387391.56549  -8094049.56844  23284597.5614   23284602.2114
  -7755635.14849  -6043338.52844  23933240.5264   23933243.9194
 98 10  6  1 19 30.0000000  0  8G19G27G31G22G 3G18G16G13
 -20710491.90349 -16138010.42944  21230420.1854   21230423.0124
  -2795718.37149  -2178475.76244  23992698.0604   23992700.4334
 -16423977.68249 -12797874.90044  22129289.5504   22129292.3254
   -135516.42049   -105573.03944  23738354.5874   23738358.5504
   -181220.22849   -141209.44844  22185431.6474   22185433.9324
 -27040322.59449 -21070346.57246  20114739.2604   20114741.2724
 -10294085.36249  -8021343.51544  23302353.3614   23302358.2504
  -7854453.85549  -6120340.07844  23914436.1184   23914438.9004
 98 10  6  1 20  0.0000000  0  8G19G27G31G22G 3G18G16G13
 -20759777.78949 -16176414.97244  21221041.4934   21221044.2314
  -2877601.76149  -2242280.87944  23977116.0904   23977119.2614
 -16502562.32049 -12859109.60744  22114335.1724   22114338.0274
    -31350.20949    -24404.58544  23758176.5714   23758179.5054
   -191179.40849   -148969.80644  22183536.5704   22183539.0724
 -27042238.38349 -21071839.38246  20114374.6574   20114376.6984
 -10200586.06649  -7948486.99444  23320145.7634   23320150.0704
  -7953140.46149  -6197238.71144  23895656.6934   23895658.6334
 98 10  6  1 20 30.0000000  0  8G19G27G31G22G 3G18G16G13
 -20808853.53349 -16214655.76344  21211702.7114   21211705.4434
  -2959503.63649  -2306100.40944  23961530.3774   23961533.2264
 -16580734.89849 -12920023.23144  22099459.4484   22099462.2404
     72916.16749     56841.90444  23778017.8634   23778021.4464
   -200578.40949   -156293.65744  22181747.5874   22181749.7684
 -27043576.73349 -21072882.23946  20114119.8454   20114121.8284
 -10106880.90249  -7875470.05444  23337977.0964   23337981.1004
  -8051681.94149  -6274024.29144  23876905.1064   23876907.9094
 98 10  6  1 21  0.0000000  0  8G19G27G31G22G 3G18G16G13
 -20857779.77749 -16252780.05744  21202392.1894   21202395.0084
  -3041456.89949  -2369959.94244  23945934.5934   23945939.3754
 -16658514.63749 -12980630.74344  22084658.1384   22084661.1544
    177252.57549    138142.97344  23797872.7134   23797876.2434
   -209435.95449   -163195.60744  22180061.9294   22180064.2524
 -27044372.79849 -21073502.54046  20113968.2554   20113970.3824
 -10012992.67949  -7802310.44744  23355843.3784   23355847.7514
  -8150100.72149  -6350714.26144  23858176.6254   23858178.8244
 98 10  6  1 21 30.0000000  0  8G19G27G31G22G 3G18G16G13
 -20906545.16049 -16290779.00644  21193112.5954   21193114.9934
  -3123433.25849  -2433837.45544  23930334.8224   23930338.1734
 -16735879.11249 -13040914.67744  22069936.2164   22069939.0704
    281669.39849    219506.68244  23817742.1954   23817745.5304
   -217722.24849   -169652.41844  22178485.1844   22178487.9374
 -27044609.97049 -21073687.34146  20113923.2314   20113925.3054
  -9918916.00749  -7729004.00444  23373745.5414   23373750.0204
  -8248364.49149  -6427283.43044  23839477.6284   23839480.7524
 98 10  6  1 22  0.0000000  0  8G19G27G31G22G 3G18G16G13
 -20955144.01449 -16328648.18344  21183864.4514   21183867.3634
  -3205408.62149  -2497714.19544  23914735.3354   23914737.6634
 -16812822.11749 -13100870.19344  22055294.4664   22055297.0094
    386182.27149    300945.23844  23837629.9374   23837633.8674
   -225430.42349   -175658.75844  22177018.0984   22177021.0854
 -27044279.58849 -21073429.88846  20113986.1644   20113988.1714
  -9824661.47849  -7655558.97244  23391681.5704   23391687.1644
  -8346455.38249  -6503717.90044  23820811.7414   23820813.8574
 98 10  6  1 22 30.0000000  0  8G19G27G31G22G 3G18G16G13
 -21003599.46149 -16366405.60544  21174643.5194   21174646.5144
  -3287370.37349  -2561580.31344  23899138.3154   23899140.8354
 -16889355.50049 -13160506.51944  22040730.4854   22040733.1004
    490764.56349    382437.89944  23857530.7774   23857534.3484
   -232567.64849   -181220.19644  22175659.8374   22175662.9734
 -27043395.97549 -21072741.34646  20114154.2944   20114156.4844
  -9730257.66349  -7581997.60844  23409646.0894   23409652.5564
  -8444390.47649  -6580030.94344  23802175.2664   23802178.6184
 98 10  6  1 23  0.0000000  0  8G19G27G31G22G 3G18G16G13
 -21051906.50549 -16404047.38344  21165451.0424   21165453.8014
  -3369318.53749  -2625435.82744  23883543.5934   23883546.5834
 -16965483.68549 -13219827.11344  22026243.7504   22026246.2274
    595389.13949    463963.50644  23877440.2834   23877443.4694
   -239143.70449   -186344.36444  22174408.3984   22174411.4144
 -27041961.01049 -21071623.17945  20114427.2264   20114429.2444
  -9635731.80749  -7508341.14844  23427633.9164   23427639.7874
  -8542187.18049  -6656236.13244  23783564.9934   23783567.6804
 98 10  6  1 23 30.0000000  0  8G19G27G31G22G 3G18G16G13
 -21100010.57749 -16441531.00245  21156297.2124   21156299.8284
  -3451215.58549  -2689251.51544  23867958.7274   23867961.8174
 -17041200.81649 -13278827.41444  22011835.3624   22011837.7144
    700069.75649    545532.76644  23897360.4704   23897363.7884
   -245139.96649   -191016.74244  22173267.6644   22173270.3414
 -27039942.89349 -21070050.60545  20114811.1774   20114813.3274
  -9541058.81849  -7434570.03344  23445649.9304   23445654.5684
  -8639837.44249  -6732327.17144  23764982.4624   23764985.0824
 98 10  6  1 24  0.0000000  0  8G19G27G31G22G 3G18G16G13
 -21147899.35449 -16478846.85445  21147184.3874   21147186.4484
  -3533065.53049  -2753030.48244  23852383.3004   23852387.0874
 -17116517.53849 -13337515.70544  21997503.0324   21997505.2354
    804799.61449    627140.42944  23917289.9134   23917293.1314
   -250563.08149   -195242.52544  22172235.6144   22172238.7874
 -27037345.47849 -21068026.62845  20115305.6214   20115307.6844
  -9446238.89049  -7360684.40744  23463693.7694   23463698.4154
  -8737354.43849  -6808314.33144  23746425.4654   23746428.0464
 98 10  6  1 24 30.0000000  0  8G19G27G31G22G 3G18G16G13
 -21195578.07449 -16515999.02445  21138111.4074   21138113.4254
  -3614887.74749  -2816787.82144  23836812.7904   23836816.8824
 -17191450.85349 -13395905.23244  21983243.4144   21983245.2254
    909557.07449    708769.58444  23937225.1264   23937228.3664
   -255425.87649   -199031.68844  22171309.8714   22171312.7754
 -27034172.20649 -21065553.93046  20115909.6614   20115911.5744
  -9351292.01949  -7286699.86044  23481761.3434   23481765.6974
  -8834747.82249  -6884205.15044  23727891.6494   23727893.7424
 98 10  6  1 25  0.0000000  0  8G19G27G31G22G 3G18G16G13
 -21243015.43749 -16552963.12145  21129084.3434   21129086.3384
  -3696674.78249  -2880517.76344  23821248.7184   23821252.1204
 -17265974.18149 -13453975.29944  21969062.0044   21969064.2474
   1014372.76249    790444.11944  23957170.9464   23957175.1654
   -259715.11149   -202373.92244  22170493.4794   22170496.5154
 -27030395.70149 -21062611.17845  20116628.1104   20116630.0924
  -9256208.28749  -7212608.66544  23499854.8454   23499859.1054
  -8931998.61649  -6959984.82244  23709385.5724   23709387.6774
 98 10  6  1 25 30.0000000  0  8G19G27G31G22G 3G18G16G13
 -21290222.96149 -16589748.12045  21120100.9034   21120103.1404
  -3778429.16949  -2944222.27644  23805691.5234   23805695.0174
 -17340090.26249 -13511728.02544  21954958.0994   21954960.0814
   1119254.18749    872169.88844  23977129.2564   23977132.8214
   -263426.62949   -205265.98244  22169787.4454   22169790.5304
 -27026026.88149 -21059206.88045  20117459.4584   20117461.4224
  -9160985.88049  -7138409.40244  23517975.0144   23517980.5004
  -9029097.00449  -7035645.72244  23690908.4404   23690911.2614
 98 10  6  1 26  0.0000000  0  8G19G27G31G22G 3G18G16G13
 -21337219.77849 -16626368.94045  21111157.6254   21111159.5044
  -3860165.77349  -3007912.94644  23790137.4594   23790141.0774
 -17413786.20649 -13569153.36844  21940934.6914   21940936.3724
   1224205.12149    953949.82144  23997100.8414   23997102.5154
   -266555.30649   -207703.88644  22169192.0164   22169195.0434
 -27021068.49949 -21055343.18445  20118403.1444   20118405.0264
  -9065639.59949  -7064113.63844  23536118.9014   23536123.4134
  -9126024.36449  -7111173.33444  23672463.7954   23672465.6954
 98 10  6  1 26 30.0000000  0  8G19G27G31G22G 3G18G16G13
 -21384003.65649 -16662823.83245  21102254.9824   21102257.0324
  -3941874.16749  -3071581.63644  23774588.7254   23774593.6574
 -17487033.81349 -13626229.36144  21926996.2114   21926997.3974
   1329235.97949   1035792.02744  24017087.7384   24017090.8144
   -269092.79349   -209681.11544  22168709.1734   22168711.7134
 -27015512.94749 -21051014.15545  20119460.3494   20119461.9914
  -8970158.58149  -6989712.86444  23554288.8064   23554293.3564
  -9222768.62049  -7186558.25044  23654053.9944   23654057.0284
 98 10  6  1 27  0.0000000  0  8G19G27G31G22G 3G18G16G13
 -21430559.83949 -16699101.30645  21093395.6224   21093397.7654
  -4023530.67149  -3135209.87544  23759050.2374   23759054.4784
 -17559803.33349 -13682932.81244  21913148.1944   21913150.3594
   1434370.30849   1117714.87244  24037093.9434   24037099.6454
   -271012.38349   -211176.86944  22168343.8954   22168346.4074
 -27009347.85949 -21046210.16145  20120633.5394   20120635.1034
  -8874509.32349  -6915180.99644  23572490.4314   23572496.0184
  -9319304.00449  -7261780.40244  23635683.9734   23635686.6254
 98 10  6  1 27 30.0000000  0  8G19G27G31G22G 3G18G16G13
 -21476918.09449 -16735224.55445  21084573.7714   21084575.8204
  -4105161.57449  -3198818.22044  23743516.1824   23743520.3514
 -17632125.13249 -13739287.39044  21899385.6814   21899387.7474
   1539564.73749   1199684.54244  24057111.2864   24057116.1794
   -272340.04549   -212211.38644  22168091.6664   22168093.4914
 -27002618.05149 -21040966.13046  20121914.2024   20121915.7734
  -8778709.65249  -6840531.92844  23590720.7194   23590725.3254
  -9415662.75949  -7336864.92944  23617347.1084   23617349.2924
 98 10  6  1 28  0.0000000  0  8G19G27G31G22G 3G18G16G13
 -21523058.16549 -16771177.79545  21075793.5024   21075795.7044
  -4186766.37549  -3262406.22644  23727987.3684   23727991.0144
 -17703977.45949 -13795276.14944  21885712.6084   21885714.6844
   1644817.65648   1281699.76844  24077140.1714   24077142.2744
   -273074.21649   -212783.43344  22167951.9144   22167953.7254
 -26995309.84149 -21035271.39746  20123304.7114   20123306.3734
  -8682766.87449  -6765771.34444  23608977.8304   23608982.7614
  -9511845.14049  -7411812.03344  23599044.2114   23599045.9754
 98 10  6  1 28 30.0000000  0  8G19G27G31G22G 3G18G16G13
 -21568971.30349 -16806954.20845  21067056.5404   21067058.8384
  -4268340.72849  -3325970.52044  23712464.2574   23712467.8704
 -17775345.13149 -13850887.25644  21872131.4884   21872134.3064
   1750129.03648   1363760.57144  24097180.6324   24097183.4554
   -273216.73249   -212894.45244  22167924.5354   22167927.3004
 -26987423.91649 -21029126.49646  20124805.5054   20124807.1024
  -8586672.36849  -6690892.52844  23627263.7024   23627268.4904
  -9607846.84549  -7486618.36544  23580775.2104   23580777.7614
 98 10  6  1 29  0.0000000  0  8G19G27G31G22G 3G18G16G13
 -21614664.32049 -16842559.10545  21058361.4044   21058363.6714
  -4349892.19449  -3389517.00044  23696945.4574   23696948.8564
 -17846251.34949 -13906138.78744  21858638.1854   21858641.4134
   1855489.42648   1445859.55244  24117230.5724   24117235.0534
   -272768.18949   -212544.91044  22168009.6514   22168012.1784
 -26978969.11049 -21022538.31246  20126414.2764   20126415.8514
  -8490441.53149  -6615907.46444  23645575.4694   23645579.7334
  -9703670.50249  -7561285.95944  23562540.3264   23562542.2904
 98 10  6  1 29 30.0000000  0  8G19G27G31G22G 3G18G16G13
 -21660151.97049 -16878003.97845  21049705.3294   21049707.6384
  -4431446.26349  -3453065.52644  23681426.0524   23681430.3774
 -17916715.21149 -13961045.62344  21845229.3064   21845232.2774
   1960877.13548   1527979.83844  24137285.3544   24137288.2354
   -271756.95049   -211756.89744  22168202.1774   22168204.3134
 -26969969.69249 -21015525.75346  20128126.7264   20128128.2634
  -8394111.43049  -6540845.06844  23663906.1554   23663911.3124
  -9799345.29549  -7635837.57044  23544333.8194   23544336.2954
 98 10  6  1 30  0.0000000  0  8G19G27G31G22G 3G18G16G13
 -21705436.75849 -16913290.78345  21041087.7994   21041090.2844
  -4512985.35949  -3516602.40144  23665909.6144   23665913.6484
 -17986721.56849 -14015595.96244  21831907.7184   21831910.6944
   2066316.49348   1610140.37344  24157350.0354   24157353.9724
   -270168.26849   -210518.93344  22168504.6564   22168507.4334
 -26960404.96349 -21008072.69246  20129946.8594   20129948.2834
  -8297673.65849  -6465698.77044  23682257.7844   23682262.9264
  -9894847.19849  -7710254.48744  23526160.3434   23526162.0284
 98 10  6  1 30 30.0000000  0  7G19G31G27G22G18G16G13
 -21750525.23549 -16948424.62045  21032507.8364   21032510.1614
 -18056276.10149 -14069794.22644  21818672.0074   21818674.7924
  -4594493.49449  -3580115.16144  23650399.0194   23650403.3864
   2171816.48148   1692348.12544  24177425.9424   24177430.5224
 -26950271.20549 -21000176.23246  20131875.1164   20131876.6814
  -8201110.42249  -6390454.69244  23700633.5454   23700638.5294
  -9990159.51849  -7784523.68144  23508023.0794   23508024.8364
 98 10  6  1 31  0.0000000  0  7G19G31G27G22G18G16G13
 -21795435.64949 -16983419.71045  21023961.6284   21023963.8614
 -18125413.20049 -14123667.22044  21805515.7564   21805518.1834
  -4675988.24249  -3643617.48744  23634890.6564   23634894.3924
   2277345.37448   1774578.41444  24197507.0364   24197510.0974
 -26939587.97049 -20991851.61146  20133908.1484   20133909.7414
  -8104453.25449  -6315137.43244  23719027.2944   23719032.4854
 -10085307.81449  -7858665.08644  23489916.8774   23489918.1804
 98 10  6  1 31 30.0000000  0  7G19G31G27G22G18G16G13
 -21840149.47049 -17018261.61445  21015452.9194   21015454.9504
 -18194101.24449 -14177190.30344  21792444.6064   21792447.3814
  -4757464.44649  -3707105.37944  23619386.1374   23619391.0704
   2382907.09747   1856834.28244  24217594.2654   24217595.5754
 -26928326.02949 -20983076.05446  20136051.2944   20136052.9494
  -8007686.75249  -6239734.98744  23737441.3084   23737446.1414
 -10180268.16249  -7932660.04744  23471846.7434   23471847.6094
 98 10  6  1 32  0.0000000  0  8G19G31G27G22G 2G18G16G13
 -21884662.28649 -17052946.89245  21006982.3064   21006984.5624
 -18262325.52849 -14230352.01244  21779461.9274   21779464.7554
  -4838909.64849  -3770569.11344  23603887.8374   23603892.3974
   2488508.58048   1939121.12444  24237690.0284   24237693.5724
        -0.31459        -0.26154  25609112.6684   25609120.0534
 -26916455.02349 -20973825.90146  20138310.1174   20138311.6274
  -7910784.07949  -6164226.42744  23755881.4014   23755885.9384
 -10275013.65249  -8006487.58144  23453817.0664   23453818.3084
 98 10  6  1 32 30.0000000  0  8G19G31G27G22G 2G18G16G13
 -21928973.93649 -17087475.42245  20998549.7804   20998552.3104
 -18330108.72649 -14283170.02644  21766563.0724   21766566.0554
  -4920343.16349  -3834023.74444  23588391.4044   23588395.3664
   2594112.44547   2021409.84144  24257786.1254   24257790.3754
    -89298.19649    -69582.50544  25592119.6744   25592128.3614
 -26903989.99849 -20964112.87646  20140682.1924   20140683.6704
  -7813769.09149  -6088630.36444  23774342.9194   23774347.4004
 -10369550.73849  -8080152.74444  23435827.5184   23435827.9124
 98 10  6  1 33  0.0000000  0  8G19G31G27G22G 2G18G16G13
 -21973066.97249 -17121833.60745  20990159.0734   20990161.7594
 -18397436.56549 -14335633.21444  21753751.0724   21753753.9044
  -5001754.93949  -3897461.42044  23572898.6334   23572903.2364
   2699710.14647   2103693.72344  24277881.0924   24277883.5194
   -178499.50349   -139089.47144  25575144.8384   25575153.7734
 -26890924.95349 -20953932.30646  20143168.2934   20143169.9344
  -7716656.65649  -6012958.34644  23792822.8684   23792827.3894
 -10463870.84849  -8153648.83044  23417878.6334   23417880.0494
 98 10  6  1 33 30.0000000  0  8G31G19G27G22G 2G18G16G13
 -18464308.46249 -14387741.12044  21741025.5784   21741028.3514
 -22016955.87549 -17156032.73245  20981807.3594   20981809.9064
  -5083148.76549  -3960885.09744  23557410.1324   23557414.7814
   2805308.05147   2185977.75344  24297975.5114   24297976.1144
   -267608.95249   -208524.83544  25558186.9274   25558196.6074
 -26877259.40949 -20943283.81346  20145768.8124   20145770.5244
  -7619462.74949  -5937222.85344  23811318.0684   23811323.0194
 -10557969.99249  -8226972.72644  23399972.1714   23399974.4514
 98 10  6  1 34  0.0000000  0  8G31G19G27G22G 2G18G16G13
 -18530724.84149 -14439494.07544  21728386.7654   21728389.1964
 -22060639.33049 -17190071.76845  20973494.7334   20973497.4674
  -5164496.50649  -4024272.85644  23541930.3944   23541934.3594
   2910912.93647   2268267.26544  24318070.9704   24318072.4824
   -356616.99448   -277881.16244  25541247.7524   25541256.9354
 -26863002.39049 -20932174.43246  20148481.8094   20148483.4114
  -7522198.83549  -5861432.81644  23829826.5494   23829831.2494
 -10651837.34149  -8300116.02244  23382109.5034   23382111.6504
 98 10  6  1 34 30.0000000  0  8G31G19G27G22G 2G18G16G13
 -18596658.35949 -14490870.77644  21715840.2374   21715842.6494
 -22104076.93149 -17223919.22945  20965228.8324   20965231.5674
  -5245769.97749  -4087602.72744  23526464.2634   23526468.6724
   3016544.32947   2350577.38344  24338172.8804   24338176.9024
   -445520.15648   -347155.82044  25524328.4074   25524337.3434
 -26848144.32449 -20920596.70546  20151309.0594   20151310.7404
  -7424867.73849  -5785590.42244  23848347.9004   23848353.5064
 -10745460.58949  -8373069.09344  23364293.5714   23364295.8514
 98 10  6  1 35  0.0000000  0  8G31G19G27G22G 2G18G16G13
 -18662105.24849 -14541868.28844  21703386.2374   21703388.2334
 -22147283.81849 -17257586.91345  20957006.7624   20957009.5424
  -5326979.95949  -4150883.11544  23511010.8634   23511014.4074
   3122217.86947   2432920.36544  24358282.1314   24358284.9094
   -534318.18648                  25507430.1914
 -26832694.70649 -20908558.03246  20154248.9584   20154250.6614
  -7327478.17849  -5709702.47944  23866880.4014   23866886.3924
 -10838854.62149  -8445843.55844  23346520.8354   23346522.5104
 98 10  6  1 35 30.0000000  0  8G31G19G27G22G 2G18G16G13
 -18727062.38349 -14592484.17844  21691024.8914   21691027.3264
 -22190267.92049 -17291080.99145  20948827.0624   20948829.8524
  -5408131.49749  -4214117.95444  23495568.0874   23495571.6934
   3227946.64947   2515306.39644  24378402.3824   24378406.2464
   -622998.09148   -485449.30544  25490554.9994   25490566.6664
 -26816654.65149 -20896059.28046  20157301.3894   20157302.8884
  -7230009.72549  -5633753.05844  23885428.2794   23885432.6154
 -10932023.40749  -8518442.51544  23328791.3794   23328793.0774
 98 10  6  1 36  0.0000000  0  8G31G19G27G22G 2G18G16G13
 -18791528.11649 -14642717.15344  21678757.3384   21678759.8364
 -22233024.41049 -17324397.70445  20940690.9074   20940693.3874
  -5489231.60649  -4277312.69544  23480135.2574   23480139.2274
   3333719.66447   2597726.88844  24398530.8384   24398534.1134
   -711573.76548   -554468.88244  25473699.7884   25473707.9794
 -26800039.63849 -20883112.50745  20160463.0614   20160464.6494
  -7132457.88349  -5557738.67544  23903991.7604   23903994.5454
 -11024979.84949  -8590875.98944  23311102.0944   23311104.8114
 98 10  6  1 36 30.0000000  0  8G31G19G27G22G 2G18G16G13
 -18855502.63149 -14692567.36744  21666583.3344   21666585.5714
 -22275572.18849 -17357551.78445  20932594.3974   20932596.7394
  -5570310.12249  -4340490.61944  23464706.8034   23464709.9294
   3439536.59647   2680181.58344  24418667.5044   24418669.2274
   -800048.60549   -623409.94344  25456863.7264   25456873.4064
 -26782867.53749 -20869731.64045  20163730.7614   20163732.4724
  -7034818.09249  -5481655.74444  23922572.1044   23922576.2634
 -11117740.39349  -8663156.81844  23293450.5194   23293451.6684
 98 10  6  1 37  0.0000000  0  8G31G19G27G22G 2G18G16G13
 -18918985.32549 -14742034.33844  21654503.0324   21654505.5224
 -22317930.61649 -17390558.31445  20924533.8224   20924536.1224
  -5651374.51949  -4403657.52244  23449280.7494   23449283.3594
   3545386.87847   2762662.28844  24438809.5004   24438811.2784
   -888406.42549   -692259.87444  25440050.3204   25440055.7694
 -26765153.39049 -20855928.40045  20167101.7304   20167103.3144
  -6937088.57149  -5405502.91144  23941169.0544   23941174.4594
 -11210300.53149  -8735281.51244  23275836.6974   23275839.3864
 98 10  6  1 37 30.0000000  0  8G31G19G27G22G 2G18G16G13
 -18981964.68849 -14791109.10644  21642518.8074   21642520.8244
 -22360088.73849 -17423408.76045  20916511.2084   20916513.5124
  -5732413.03249  -4466804.26244  23433859.2664   23433862.4484
   3651260.00647   2845160.80844  24458955.7294   24458960.7064
   -976659.31349   -761028.09644  25423256.6814   25423263.0864
 -26746889.11449 -20841696.48545  20170577.3884   20170579.0294
  -6839265.46049  -5329277.16144  23959784.2044   23959789.5904
 -11302655.58549  -8807246.39444  23258261.8924   23258263.3824
 98 10  6  1 38  0.0000000  0  8G31G19G27G22G 2G18G16G13
 -19044439.20249 -14839790.47944  21630630.2044   21630632.5154
 -22402049.38149 -17456105.31945  20908526.1344   20908528.8004
  -5813436.55349  -4529939.31544  23418440.9614   23418444.0504
   3757139.77846   2927664.48444  24479103.0494   24479108.4954
  -1064825.33849   -829728.67044  25406479.2164   25406485.7194
 -26728083.75249 -20827042.94346  20174155.7994   20174157.5914
  -6741359.54049  -5252986.88044  23978415.3894   23978418.5884
 -11394802.24149  -8879048.89644  23240726.9424   23240728.8734
 98 10  6  1 38 30.0000000  0  8G31G19G27G22G 2G18G16G13
 -19106404.29349 -14888074.89444  21618838.4184   21618840.8504
 -22443791.06649 -17488631.25545  20900582.9024   20900585.5624
  -5894433.87349  -4593053.95644  23403027.3594   23403030.6604
   3863021.47946   3010169.69744  24499250.0384   24499255.7294
  -1152890.43649   -898350.60644  25389720.5524   25389726.8034
 -26708714.92749 -20811950.34046  20177841.5294   20177843.3134
  -6643368.02449  -5176629.88444  23997063.1304   23997066.3334
 -11486733.74949  -8950683.75544  23223232.9584   23223234.5514
 98 10  6  1 39  0.0000000  0  8G31G19G27G22G 2G18G16G13
 -19167875.40549 -14935974.39544  21607140.8864   21607143.1404
 -22485303.32349 -17520978.41845  20892683.5644   20892686.2494
  -5975416.38449  -4656157.05944  23387616.8344   23387619.9724
   3968888.08446   3092663.12344  24519395.4924   24519401.5754
  -1240887.19249   -966919.29544  25372974.1414   25372983.5734
 -26688773.01749 -20796411.17446  20181636.4084   20181638.0514
  -6545318.04349  -5100227.32444  24015721.6524   24015725.9534
 -11578458.98649  -9022157.89144  23205778.7214   23205779.4094
 98 10  6  1 39 30.0000000  0  8G31G19G27G22G 2G18G16G13
 -19228853.62649 -14983489.83344  21595537.0724   21595539.1124
 -22526573.63549 -17553137.05045  20884829.9274   20884832.4604
  -6056382.26849  -4719247.23944  23372209.1464   23372212.4694
   4074753.05247   3175155.27644  24539540.8474   24539550.7754
  -1328821.76849  -1035439.54744  25356240.2934   25356247.5204
 -26668239.65949 -20780411.13846  20185543.9684   20185545.4934
  -6447215.71248  -5023784.01044  24034389.0734   24034394.0114
 -11669974.16249  -9093468.36344  23188363.8864   23188364.9164
 98 10  6  1 40  0.0000000  0  8G31G19G27G22G 2G18G16G13
 -19289341.38549 -15030623.09444  21584026.9314   21584029.0964
 -22567598.43849 -17585104.37645  20877023.1734   20877025.8134
  -6137341.24349  -4782332.02544  23356802.6094   23356806.1914
   4180606.49647   3257638.50644  24559683.8124   24559690.3234
  -1416673.42049  -1103895.15844  25339522.9704   25339531.4094
 -26647113.10849 -20763948.87446  20189564.2034   20189565.7864
  -6349076.28148  -4947311.77244  24053063.9904   24053069.9454
 -11761276.78149  -9164613.21344  23170989.5054   23170989.9244
 98 10  6  1 40 30.0000000  0  8G31G19G27G22G 2G18G16G13
 -19349320.46749 -15077359.98744  21572613.3314   21572615.3054
 -22608348.98649 -17616857.99545  20869268.5054   20869270.8964
  -6218259.41349  -4845385.04244  23341404.2454   23341407.9104
   4286475.30547   3340133.65244  24579829.4174   24579835.3324
  -1504406.06549  -1172258.03844  25322828.1514   25322835.4384
 -26625364.63549 -20747001.99746  20193702.7924   20193704.3374
  -6250892.41648  -4870804.91544  24071747.8404   24071755.3354
 -11852347.40149  -9235577.28344  23153659.1794   23153659.8794
 98 10  6  1 41  0.0000000  0  8G31G19G27G22G 2G18G16G13
 -19408784.39749 -15123695.46644  21561297.8464   21561299.6904
 -22648849.46949 -17648416.75945  20861561.5304   20861563.8544
  -6299138.47549  -4908407.59244  23326013.3474   23326016.6974
   4392365.71847   3422645.68644  24599980.2864   24599984.0324
  -1592027.78249  -1240534.47344  25306153.8904   25306161.1294
 -26603014.16949 -20729586.03346  20197955.9384   20197957.5324
  -6152680.13148  -4794275.89944  24090437.8204   24090442.9834
 -11943178.07649  -9306354.38544  23136374.6144   23136375.3744
 98 10  6  1 41 30.0000000  0  8G31G19G27G22G 2G18G16G13
 -19467727.01149 -15169624.72244  21550081.2674   21550082.9644
 -22689116.94849 -17679793.96845  20853899.0954   20853901.2294
  -6379971.40649  -4971394.22944  23310631.4024   23310635.4644
   4498255.45948   3505157.20144  24620131.1774   24620134.9824
  -1679511.63749  -1308703.45044  25289506.0724   25289513.5014
 -26580079.07649 -20711714.51246  20202320.2464   20202321.9914
  -6054433.68049  -4717720.24844  24109133.9294   24109140.1364
 -12033775.92449  -9376950.07144  23119134.4324   23119135.2074
 98 10  6  1 42  0.0000000  0  8G31G19G27G22G 2G18G16G13
 -19526125.38249 -15215129.89844  21538968.0254   21538970.1264
 -22729133.86749 -17710975.93845  20846284.1664   20846286.3274
  -6460734.87749  -5034326.76944  23295262.5414   23295266.1864
   4604157.70148   3587678.41744  24640284.5554   24640287.4034
  -1766838.79149  -1376750.35644  25272887.8454   25272894.8084
 -26556543.83149 -20693375.33746  20206798.8724   20206800.6184
  -5956126.99649  -4641117.67244  24127841.5384   24127846.1984
 -12124119.62349  -9447347.72744  23101942.3194   23101943.0094
 98 10  6  1 42 30.0000000  0  8G31G19G27G22G 2G18G16G13
 -19583976.36849 -15260208.53844  21527959.1244   21527961.5474
 -22768917.10149 -17741975.81845  20838713.7644   20838715.5664
  -6541421.06149  -5097199.07844  23279908.3534   23279912.1384
   4710085.12448   3670219.26144  24660442.1124   24660445.1804
  -1854024.62649  -1444687.13444  25256296.4924   25256304.9324
 -26532415.20149 -20674573.78546  20211390.3824   20211392.1364
  -5857757.31849  -4564466.02244  24146560.6574   24146565.1254
 -12214204.78249  -9517543.89944  23084799.6414   23084800.5194
 98 10  6  1 43  0.0000000  0  8G31G19G27G22G 2G18G16G13
 -19641287.43549 -15304866.46844  21517053.1384   21517055.5314
 -22808491.61949 -17772813.06445  20831182.7864   20831184.9504
  -6622055.07049  -5160030.77144  23264564.5134   23264568.6054
   4816012.84949   3752760.34844  24680600.0854   24680603.0494
  -1941078.79149  -1512521.30744  25239730.6334   25239736.7914
 -26507707.29449 -20655320.84746  20216092.0724   20216093.8164
  -5759345.14249  -4487781.27044  24165287.8544   24165291.4364
 -12304032.65949  -9587539.58244  23067705.8594   23067706.4204
 98 10  6  1 43 30.0000000  0  8G31G19G27G22G 2G18G16G13
 -19698080.17549 -15349120.50044  21506245.7504   21506248.1654
 -22847866.79449 -17803494.98145  20823689.7254   20823691.6774
  -6702656.36849  -5222836.97544  23249226.4414   23249230.1824
   4921926.81949   3835290.70644  24700755.3254   24700757.9054
  -2028004.98649  -1580255.76844  25223188.7114   25223194.8434
 -26482414.01649 -20635611.78446  20220905.2304   20220907.0554
  -5660893.17048  -4411065.50244  24184022.1414   24184025.6854
 -12393605.56949  -9657336.59744  23050660.8534   23050661.4694
 98 10  6  1 44  0.0000000  0  8G31G19G27G22G 2G18G16G13
 -19754374.25249 -15392985.96244  21495533.4734   21495535.4384
 -22887056.88049 -17834032.67745  20816232.0594   20816234.0274
  -6783234.31849  -5285624.99144  23233892.9944   23233896.7234
   5027828.48149   3917811.46844  24720908.0144   24720909.6924
  -2114832.29049  -1647913.17544  25206665.5214   25206674.7054
 -26456543.01749 -20615452.55046  20225828.3294   20225830.0184
  -5562428.33848  -4334339.70744  24202759.1524   24202766.3484
 -12482917.95449  -9726930.58644  23033665.2674   23033665.9104
 98 10  6  1 44 30.0000000  0  8G31G19G27G22G 2G18G16G13
 -19810159.18949 -15436454.68744  21484917.9934   21484919.8944
 -22926058.91149 -17864423.84145  20808810.2954   20808812.1834
  -6863783.69249  -5348390.75144  23218565.0954   23218568.7984
   5133706.10349   4000313.50144  24741055.9054   24741058.1934
  -2201547.66949  -1715483.37644  25190164.1234   25190171.6254
 -26430094.59949 -20594843.37446  20230861.3134   20230862.8204
  -5463946.55947  -4257600.70244  24221499.6594   24221509.0914
 -12571963.55049  -9796316.67144  23016720.3714   23016721.0344
 98 10  6  1 45  0.0000000  0  8G31G19G27G22G 2G18G16G13
 -19865416.14849 -15479511.99744  21474402.7574   21474404.3494
 -22964829.90749 -17894634.98245  20801432.5174   20801434.1314
  -6944288.49449  -5411121.77244  23203245.2014   23203248.5154
   5239566.81049   4082802.35544  24761199.5824   24761201.7024
  -2288124.69149  -1782945.77144  25173689.1374   25173697.0024
 -26403062.63649 -20573779.48846  20236005.1774   20236007.0304
  -5365424.15547  -4180830.05244  24240247.6884   24240250.8334
 -12660724.43549  -9865480.90144  22999829.3984   22999830.6724
 98 10  6  1 45 30.0000000  0  8G31G19G27G22G 2G18G16G13
 -19920133.78349 -15522149.05644  21463990.2024   21463992.3154
 -23003350.32549 -17924650.86945  20794102.4734   20794103.9674
  -7024735.37449  -5473807.64244  23187936.6304   23187940.2754
   5345416.65249   4165282.72544  24781341.8574   24781345.2684
  -2374568.71649  -1850304.58044  25157239.8634   25157247.1604
 -26375452.94349 -20552265.42746  20241259.0994   20241260.8884
  -5266850.32247  -4104019.35744  24259005.1504   24259010.2504
 -12749202.62649  -9934424.83944  22982992.5204   22982993.8204
 98 10  6  1 46  0.0000000  0  8G31G19G27G22G 2G18G16G13
 -19974319.15249 -15564371.35744  21453679.0584   21453681.1114
 -23041634.89749 -17954482.97545  20786817.1264   20786818.5514
  -7105138.32949  -5536459.27544  23172636.5694   23172640.0914
   5451227.60249   4247732.82044  24801476.5314   24801480.2274
  -2460908.03049  -1917581.81644  25140810.4564   25140815.3014
 -26347310.26749 -20530336.05545  20246614.4654   20246616.0384
  -5168256.02647  -4027192.66944  24277767.0224   24277771.9754
 -12837438.71849 -10003180.12444  22966201.5294   22966203.0144
 98 10  6  1 46 30.0000000  0  8G31G19G27G22G 2G18G16G13
 -20027966.24049 -15606174.22144  21443470.3524   21443472.3634
 -23079670.04149 -17984120.72645  20779579.0304   20779580.8984
  -7185504.85449  -5599082.50244  23157343.1234   23157346.3434
   5557002.16548   4330154.54344  24821604.9184   24821609.4804
  -2547136.35449  -1984772.59844  25124401.5134   25124406.3984
 -26318641.14949 -20507996.46945  20252070.0074   20252071.5014
  -5069643.73047  -3950351.95944  24296532.1604   24296536.9074
 -12925433.67149 -10071747.50344  22949456.6004   22949457.9984
 98 10  6  1 47  0.0000000  0  8G19G27G31G22G 2G18G16G13
 -23117449.31449 -18013559.09845  20772389.6984   20772391.6464
  -7265822.06849  -5661667.27944  23142059.5064   23142063.1654
 -20081055.68749 -15647542.56744  21433367.5564   21433369.6264
   5662771.60248   4412572.30144  24841731.6684   24841735.7954
  -2633248.89849  -2051873.21844  25108014.9624   25108019.5734
 -26289423.78249 -20485229.67845  20257630.0324   20257631.4154
  -4971013.18547  -3873497.01644  24315301.3314   24315308.5124
 -13013164.04949 -10140108.71344  22932762.1854   22932763.3534
 98 10  6  1 47 30.0000000  0  8G31G19G27G22G 2G18G16G13
 -20133597.84349 -15688484.44844  21423369.2694   21423370.9324
 -23154998.44849 -18042818.14345  20765244.4444   20765246.4064
  -7346095.85949  -5724218.18744  23126783.8644   23126787.5274
   5768533.31848   4494984.02944  24861857.1624   24861863.3034
  -2719255.44149  -2118891.27444  25091648.3694   25091654.2914
 -26259654.02749 -20462032.45545  20263294.8624   20263296.3734
  -4872390.94547  -3796648.57744  24334068.9344   24334074.0924
 -13100639.58049 -10208271.34844  22916116.0424   22916116.9584
 98 10  6  1 48  0.0000000  0  8G31G19G27G22G 2G18G16G13
 -20185600.95849 -15729006.30744  21413473.4524   21413475.0704
 -23192315.99349 -18071896.72845  20758143.3514   20758145.0574
  -7426319.64249  -5786730.12644  23111517.9154   23111520.8354
   5874294.76248   4577395.50044  24881982.1574   24881989.2294
  -2805144.25049  -2185817.64444  25075303.7444   25075310.4204
 -26229312.77049 -20438389.90645  20269068.6214   20269070.2844
  -4773782.78248  -3719811.12044  24352834.1884   24352837.1124
 -13187844.28949 -10276222.95244  22899521.3884   22899522.7524
 98 10  6  1 48 30.0000000  0  8G31G19G27G22G 2G18G16G13
 -20237050.25349 -15769096.61544  21403682.9684   21403684.6024
 -23229397.26649 -18100791.20645  20751086.9864   20751088.6994
  -7506489.90049  -5849200.33944  23096262.1864   23096265.2424
   5980058.70947   4659808.95744  24902108.4694   24902115.9684
  -2890906.05849  -2252645.04344  25058982.9644   25058989.9874
 -26198365.83049 -20414275.40145  20274957.5324   20274959.0764
  -4675181.09848  -3642978.67744  24371597.6124   24371601.7754
 -13274747.29449 -10343939.45644  22882984.0964   22882985.7154
 98 10  6  1 49  0.0000000  0  8G31G19G27G22G 2G18G16G13
 -20287932.66149 -15808745.19644  21394000.0814   21394001.9294
 -23266242.05749 -18129501.41045  20744075.3564   20744077.1574
  -7586609.64149  -5911631.17244  23081015.9834   23081019.1534
   6085807.50248   4742210.62244  24922232.2284   24922236.5504
  -2976537.73248  -2319371.02944  25042687.4364   25042697.1174
 -26166804.53449 -20389682.17345  20280963.2464   20280964.9444
  -4576575.46748  -3566143.18044  24390361.4374   24390368.0624
 -13361347.10049 -10411419.71144  22866504.5874   22866505.4454
 98 10  6  1 49 30.0000000  0  8G31G19G27G22G 2G18G16G13
 -20338264.05049 -15847964.40444  21384421.8994   21384424.1944
 -23302847.62249 -18158025.20945  20737109.3854   20737111.3634
  -7666682.93349  -5974025.80244  23065778.7554   23065781.9414
   6191520.07348   4824584.01744  24942349.4494   24942352.4424
  -3062038.85248  -2385995.25044  25026417.5244   25026425.9634
 -26134643.27849 -20364621.44245  20287083.4074   20287085.0344
  -4477967.85148  -3489306.15144  24409126.1594   24409128.4694
 -13447656.79549 -10478673.90644  22850079.9674   22850081.2054
 98 10  6  1 50  0.0000000  0  8G31G19G27G22G 2G18G16G13
 -20388067.65549 -15886772.35944  21374944.7854   21374946.9344
 -23339236.91149 -18186380.47945  20730184.7404   20730186.7374
  -7746737.17649  -6036405.58144  23050544.5544   23050547.7494
   6297161.46148   4906901.96944  24962453.9184   24962456.3514
  -3147450.10348  -2452549.38644  25010164.9084   25010175.0854
 -26101914.57749 -20339118.55045  20293311.5744   20293313.1884
  -4379375.67747  -3412481.12244  24427887.6714   24427891.6044
 -13533688.43949 -10545711.44444  22833708.6444   22833709.6134
 98 10  6  1 50 30.0000000  0  8G31G19G27G22G 2G18G16G13
 -20437316.84149 -15925148.30544  21365573.2204   21365575.5244
 -23375397.28249 -18214557.37545  20723303.8424   20723305.6674
  -7826763.93749  -6098763.94144  23035315.7054   23035319.1134
   6402740.33748   4989171.18344  24982545.2184   24982547.1794
  -3232769.62548  -2519031.96544  24993929.6124   24993936.8434
 -26068634.05949 -20313185.67145  20299644.6894   20299646.2794
  -4280781.88347  -3335654.86944  24446648.8864   24446654.8864
 -13619444.83649 -10612534.50944  22817389.5554   22817390.9394
 98 10  6  1 51  0.0000000  0  8G31G19G27G22G 2G18G16G13
 -20485988.03949 -15963073.86544  21356311.4324   21356313.4304
 -23411282.94949 -18242520.21145  20716475.0864   20716476.9854
  -7906716.05249  -6161064.13944  23020101.0724   23020104.2284
   6508307.64848   5071431.40044  25002634.4844   25002634.2974
  -3317956.02248  -2585410.73344  24977719.0614   24977724.0474
 -26034791.14949 -20286814.56745  20306084.9374   20306086.4394
  -4182161.67047  -3258808.01644  24465414.9784   24465417.9494
 -13704894.24049 -10679118.36944  22801129.2484   22801130.4894
 98 10  6  1 51 30.0000000  0  8G31G19G27G22G 2G18G16G13
 -20534092.59449 -16000557.88644  21347157.2324   21347159.2254
 -23446901.08449 -18270274.58245  20709697.1074   20709699.0934
  -7986577.50249  -6223293.69144  23004903.6384   23004906.4754
   6613878.87248   5153694.67344  25022724.1874   25022727.1264
  -3403020.45848  -2651694.04544  24961531.6004   24961533.2414
 -26000395.63849 -20260012.86345  20312630.1094   20312631.5884
  -4083539.63247  -3181959.76344  24484182.0684   24484191.9964
 -13790039.71849 -10745465.41344  22784926.5404   22784927.6484
 98 10  6  1 52  0.0000000  0  8G31G19G27G22G 2G18G16G13
 -20581627.28149 -16037597.85344  21338111.3404   21338113.5684
 -23482256.97049 -18297824.60245  20702968.9654   20702971.0224
  -8066369.29749  -6285468.97644  22989719.8994   22989722.9824
   6719447.62448   5235956.02844  25042813.2574   25042814.6694
  -3487969.85048  -2717888.68944  24945366.0834   24945373.2314
 -25965447.06049 -20232780.19845  20319280.6604   20319282.1114
  -3984936.84047  -3105126.47044  24502944.9314   24502953.1234
 -13874886.24849 -10811579.49744  22768780.9194   22768781.9634
 98 10  6  1 52 30.0000000  0  8G31G19G27G22G 2G18G16G13
 -20628580.99449 -16074185.11644  21329176.4644   21329178.6424
 -23517349.14549 -18325169.13245  20696291.0924   20696293.1974
  -8146098.81949  -6347595.73344  22974547.2154   22974550.4414
   6825002.21249   5318206.32144  25062899.2974   25062901.3674
  -3572777.01448  -2783971.86944  24929227.4234   24929234.8624
 -25929930.76749 -20205105.15845  20326039.2444   20326040.6774
  -3886365.04147  -3028317.33944  24521702.8484   24521711.7844
 -13959435.55649 -10877461.99944  22752691.8434   22752692.5114
 98 10  6  1 53  0.0000000  0  8G31G19G27G22G 2G18G16G13
 -20674973.35849 -16110334.96144  21320348.7494   21320350.6394
 -23552208.08849 -18352331.92745  20689657.7904   20689659.8514
  -8225790.17349  -6409692.75244  22959382.7494   22959385.8084
   6930516.36649   5400425.13344  25082977.6274   25082980.8284
  -3657440.07547  -2849942.75744  24913115.6194   24913125.2994
 -25893832.73949 -20176976.81645  20332908.3484   20332909.9014
  -3787844.17247  -2951547.89244  24540450.9734   24540458.2994
 -14043699.03449 -10943121.77744  22736656.9664   22736657.8584
 98 10  6  1 53 30.0000000  0  8G31G19G27G22G 2G18G16G13
 -20720794.57949 -16146039.77044  21311629.2934   21311631.0444
 -23586838.85049 -18379316.91845  20683067.7304   20683069.7794
  -8305453.53249  -6471767.98144  22944223.2824   22944225.4984
   7035971.99848   5482598.31544  25103044.7204   25103046.7864
  -3741947.84347  -2915792.68144  24897033.2334   24897044.8994
 -25857125.98249 -20148374.14045  20339893.2224   20339894.9774
  -3689356.28748  -2874804.13244  24559193.5904   24559200.9054
 -14127686.65049 -11008566.60844  22720674.4834   22720675.4984
 98 10  6  1 54  0.0000000  0  8G31G19G27G22G 2G18G16G13
 -20766053.67249 -16181306.55544  21303016.4474   21303018.3094
 -23621241.90449 -18406124.47445  20676520.8274   20676523.0714
  -8385109.14349  -6533837.16444  22929064.9484   22929068.1094
   7141346.51448   5564708.29644  25123097.2884   25123100.5144
  -3826285.82847  -2981510.23844  24880984.2394   24880993.9194
 -25819813.82349 -20119299.72445  20346993.6544   20346995.1644
  -3590889.96848  -2798077.18244  24577931.5904   24577936.6374
 -14211399.19849 -11073797.09744  22704744.3804   22704745.7224
 98 10  6  1 54 30.0000000  0  8G31G27G19G22G 2G18G16G13
 -20810735.51049 -16216123.53044  21294513.8844   21294515.8674
  -8464712.79049  -6595865.87044  22913916.6914   22913919.8444
 -23655395.96149 -18432738.00445  20670021.5214   20670023.8334
   7246663.94448   5646773.81044  25143138.1974   25143141.3804
  -3910433.46247                  24864971.5074
 -25781895.67749 -20089753.10645  20354209.3154   20354210.8084
  -3492413.74448  -2721342.51344  24596671.3404   24596675.3564
 -14294811.75149 -11138793.83144  22688871.4124   22688872.6794
 98 10  6  1 55  0.0000000  0  8G31G27G19G22G 2G18G16G13
 -20854840.97549 -16250491.39444  21286120.8034   21286122.5804
  -8544249.07549  -6657842.09144  22898780.8644   22898783.9624
 -23689290.85949 -18459149.58645  20663571.5724   20663573.8924
   7351942.89148   5728809.35244  25163171.3174   25163177.4044
  -3994402.13747  -3112509.35844  24848992.1924   24848998.3314
 -25743391.41149 -20059749.77245  20361536.4934   20361538.0314
  -3393925.78948  -2644598.68644  24615412.7894   24615417.9384
 -14377930.60549 -11203561.70944  22673054.5154   22673055.2844
 98 10  6  1 55 30.0000000  0  8G31G27G19G22G 2G18G16G13
 -20898382.49949 -16284419.82244  21277834.8874   21277836.5854
  -8623712.14049  -6719761.26244  22883659.4964   22883662.7854
 -23722915.54349 -18485350.61245  20657173.2564   20657175.3784
   7457183.82148   5810815.29144  25183196.7894   25183205.9734
  -4078223.55947  -3177824.45844  24833041.1274   24833048.1314
 -25704330.97049 -20029313.05445  20368969.3154   20368970.9604
  -3295446.52648  -2567861.64644  24634153.2644   24634159.1164
 -14460746.51149 -11268093.51344  22657295.1744   22657296.1604
 98 10  6  1 56  0.0000000  0  8G31G27G19G22G 2G18G16G13
 -20941349.75549 -16317900.76444  21269658.4954   21269660.0114
  -8703081.95949  -6781607.77844  22868556.2354   22868559.1214
 -23756258.50249 -18511332.11045  20650828.1164   20650830.3224
   7562399.46547   5892801.54444  25203217.7234   25203222.9704
  -4161908.87447  -3243033.56644  24817116.8984
 -25664736.83549 -19998460.47145  20376503.6824   20376505.2314
  -3196990.91149  -2491143.01944  24652889.4254   24652892.9764
 -14543233.08449 -11332368.69344  22641598.6574   22641599.5274
 98 10  6  1 56 30.0000000  0  8G31G27G13G19G22G 2G18G16
 -20983732.59449 -16350926.31544  21261593.4544   21261594.9694
  -8782360.08949  -6843382.86444  22853469.9954   22853473.1564
 -14625401.19849 -11396395.72144  22625962.6424   22625963.5124
 -23789333.50149 -18537104.80545  20644533.9054   20644536.0664
   7667587.29447   5974766.09544  25223234.0914   25223242.2824
  -4245487.46347  -3308159.48844  24801212.1464   24801218.8654
 -25624612.54549 -19967194.78145  20384139.0704   20384140.6344
  -3098582.65049  -2414461.31744  24671615.6774   24671618.8794
 98 10  6  1 57  0.0000000  0  8G31G27G19G22G 2G18G16G13
 -21025541.66249 -16383504.76844  21253637.1424   21253639.0474
  -8861569.53549  -6905104.42444  22838397.0044   22838400.0234
 -23822152.05949 -18562677.67445  20638288.8094   20638290.9884
   7772739.06847   6056702.51444  25243244.5704   25243251.6814
  -4328979.11647  -3373217.69944  24785323.8684   24785327.7924
 -25583947.96849 -19935508.09145  20391877.3574   20391878.9294
  -3000236.97348  -2337828.35844  24690330.2884   24690333.7414
 -14707260.16249 -11460181.84744  22610385.4734   22610385.9194
